Wetterdaten: Dienstag, 03.03.2026
Datum Zeit Temp. Aussen Temp. o. S. Temp +5cm Feuchte Auss Luftdruck Regen Sonnenschein Solar Windböen Empfang
03.03.2026 00:00 9,5 °C 8,3 °C 5,0 °C 79 % 1023,1 hPa 0,0 l/m² 0 min 0 W/m² 19,3 km/h (3 Bft) 97,83 %
03.03.2026 00:02 9,4 °C 8,3 °C 5,0 °C 79 % 1023,1 hPa 0,0 l/m² 0 min 0 W/m² 16,1 km/h (3 Bft) 95,45 %
03.03.2026 00:04 9,4 °C 8,3 °C 5,0 °C 79 % 1023,2 hPa 0,0 l/m² 0 min 0 W/m² 25,7 km/h (4 Bft) 95,74 %
03.03.2026 00:07 9,4 °C 8,3 °C 5,0 °C 79 % 1023,2 hPa 0,0 l/m² 0 min 0 W/m² 16,1 km/h (3 Bft) 97,30 %
03.03.2026 00:08 9,4 °C 8,3 °C 5,0 °C 79 % 1023,2 hPa 0,0 l/m² 0 min 0 W/m² 16,1 km/h (3 Bft) 100,00 %
03.03.2026 00:10 9,4 °C 8,3 °C 5,0 °C 80 % 1023,2 hPa 0,0 l/m² 0 min 0 W/m² 16,1 km/h (3 Bft) 97,87 %
03.03.2026 00:12 9,3 °C 8,3 °C 5,0 °C 80 % 1023,2 hPa 0,0 l/m² 0 min 0 W/m² 19,3 km/h (3 Bft) 95,74 %
03.03.2026 00:14 9,3 °C 8,3 °C 5,0 °C 80 % 1023,2 hPa 0,0 l/m² 0 min 0 W/m² 12,9 km/h (3 Bft) 97,83 %
03.03.2026 00:16 9,3 °C 8,3 °C 5,0 °C 80 % 1023,2 hPa 0,0 l/m² 0 min 0 W/m² 12,9 km/h (3 Bft) 95,74 %
03.03.2026 00:18 9,3 °C 8,3 °C 5,0 °C 80 % 1023,2 hPa 0,0 l/m² 0 min 0 W/m² 16,1 km/h (3 Bft) 97,87 %
03.03.2026 00:20 9,3 °C 8,3 °C 4,4 °C 80 % 1023,2 hPa 0,0 l/m² 0 min 0 W/m² 6,4 km/h (2 Bft) 93,62 %
03.03.2026 00:22 9,3 °C 8,3 °C 4,4 °C 80 % 1023,2 hPa 0,0 l/m² 0 min 0 W/m² 16,1 km/h (3 Bft) 97,87 %
03.03.2026 00:24 9,3 °C 8,3 °C 4,4 °C 80 % 1023,2 hPa 0,0 l/m² 0 min 0 W/m² 12,9 km/h (3 Bft) 100,00 %
03.03.2026 00:26 9,2 °C 8,3 °C 4,4 °C 80 % 1023,2 hPa 0,0 l/m² 0 min 0 W/m² 16,1 km/h (3 Bft) 100,00 %
03.03.2026 00:28 9,2 °C 8,3 °C 4,4 °C 80 % 1023,3 hPa 0,0 l/m² 0 min 0 W/m² 16,1 km/h (3 Bft) 100,00 %
03.03.2026 00:30 9,2 °C 8,3 °C 4,4 °C 80 % 1023,3 hPa 0,0 l/m² 0 min 0 W/m² 9,7 km/h (2 Bft) 97,87 %
03.03.2026 00:32 9,2 °C 8,3 °C 4,4 °C 80 % 1023,3 hPa 0,0 l/m² 0 min 0 W/m² 16,1 km/h (3 Bft) 100,00 %
03.03.2026 00:34 9,1 °C 8,3 °C 4,4 °C 80 % 1023,3 hPa 0,0 l/m² 0 min 0 W/m² 12,9 km/h (3 Bft) 100,00 %
03.03.2026 00:36 9,1 °C 7,8 °C 4,4 °C 80 % 1023,3 hPa 0,0 l/m² 0 min 0 W/m² 12,9 km/h (3 Bft) 100,00 %
03.03.2026 00:38 9,1 °C 7,8 °C 4,4 °C 80 % 1023,3 hPa 0,0 l/m² 0 min 0 W/m² 16,1 km/h (3 Bft) 100,00 %
03.03.2026 00:40 9,1 °C 7,8 °C 4,4 °C 80 % 1023,3 hPa 0,0 l/m² 0 min 0 W/m² 12,9 km/h (3 Bft) 97,87 %
03.03.2026 00:42 9,1 °C 7,8 °C 4,4 °C 81 % 1023,3 hPa 0,0 l/m² 0 min 0 W/m² 9,7 km/h (2 Bft) 100,00 %
03.03.2026 00:44 9,0 °C 7,8 °C 4,4 °C 81 % 1023,4 hPa 0,0 l/m² 0 min 0 W/m² 9,7 km/h (2 Bft) 97,87 %
03.03.2026 00:46 9,0 °C 7,8 °C 4,4 °C 81 % 1023,4 hPa 0,0 l/m² 0 min 0 W/m² 12,9 km/h (3 Bft) 100,00 %
03.03.2026 00:48 8,9 °C 7,8 °C 4,4 °C 81 % 1023,4 hPa 0,0 l/m² 0 min 0 W/m² 12,9 km/h (3 Bft) 97,83 %
03.03.2026 00:50 8,9 °C 7,8 °C 4,4 °C 81 % 1023,4 hPa 0,0 l/m² 0 min 0 W/m² 16,1 km/h (3 Bft) 97,87 %
03.03.2026 00:52 8,9 °C 7,8 °C 4,4 °C 81 % 1023,4 hPa 0,0 l/m² 0 min 0 W/m² 12,9 km/h (3 Bft) 100,00 %
03.03.2026 00:54 8,8 °C 7,8 °C 4,4 °C 81 % 1023,4 hPa 0,0 l/m² 0 min 0 W/m² 16,1 km/h (3 Bft) 100,00 %
03.03.2026 00:56 8,8 °C 7,8 °C 4,4 °C 81 % 1023,5 hPa 0,0 l/m² 0 min 0 W/m² 12,9 km/h (3 Bft) 97,87 %
03.03.2026 00:58 8,8 °C 7,8 °C 4,4 °C 81 % 1023,4 hPa 0,0 l/m² 0 min 0 W/m² 12,9 km/h (3 Bft) 93,62 %
03.03.2026 01:00 8,8 °C 7,8 °C 3,9 °C 81 % 1023,5 hPa 0,0 l/m² 0 min 0 W/m² 12,9 km/h (3 Bft) 97,87 %
03.03.2026 01:02 8,7 °C 7,8 °C 3,9 °C 82 % 1023,4 hPa 0,0 l/m² 0 min 0 W/m² 16,1 km/h (3 Bft) 93,48 %
03.03.2026 01:04 8,7 °C 7,8 °C 3,9 °C 82 % 1023,4 hPa 0,0 l/m² 0 min 0 W/m² 12,9 km/h (3 Bft) 97,87 %
03.03.2026 01:06 8,7 °C 7,8 °C 3,9 °C 82 % 1023,4 hPa 0,0 l/m² 0 min 0 W/m² 12,9 km/h (3 Bft) 98,31 %
03.03.2026 01:08 8,7 °C 7,2 °C 3,9 °C 82 % 1023,4 hPa 0,0 l/m² 0 min 0 W/m² 12,9 km/h (3 Bft) 97,22 %
03.03.2026 01:10 8,6 °C 7,2 °C 3,9 °C 82 % 1023,5 hPa 0,0 l/m² 0 min 0 W/m² 9,7 km/h (2 Bft) 97,87 %
03.03.2026 01:12 8,6 °C 7,2 °C 3,9 °C 82 % 1023,4 hPa 0,0 l/m² 0 min 0 W/m² 12,9 km/h (3 Bft) 95,65 %
03.03.2026 01:14 8,6 °C 7,2 °C 3,9 °C 82 % 1023,4 hPa 0,0 l/m² 0 min 0 W/m² 12,9 km/h (3 Bft) 95,74 %
03.03.2026 01:16 8,5 °C 7,2 °C 3,9 °C 82 % 1023,4 hPa 0,0 l/m² 0 min 0 W/m² 12,9 km/h (3 Bft) 97,87 %
03.03.2026 01:18 8,5 °C 7,2 °C 3,9 °C 82 % 1023,4 hPa 0,0 l/m² 0 min 0 W/m² 12,9 km/h (3 Bft) 97,87 %
03.03.2026 01:20 8,4 °C 7,2 °C 3,9 °C 82 % 1023,5 hPa 0,0 l/m² 0 min 0 W/m² 6,4 km/h (2 Bft) 97,87 %
03.03.2026 01:22 8,4 °C 7,2 °C 3,9 °C 82 % 1023,5 hPa 0,0 l/m² 0 min 0 W/m² 9,7 km/h (2 Bft) 97,87 %
03.03.2026 01:24 8,4 °C 7,2 °C 3,9 °C 82 % 1023,5 hPa 0,0 l/m² 0 min 0 W/m² 12,9 km/h (3 Bft) 97,83 %
03.03.2026 01:26 8,4 °C 7,2 °C 3,9 °C 82 % 1023,5 hPa 0,0 l/m² 0 min 0 W/m² 16,1 km/h (3 Bft) 100,00 %
03.03.2026 01:28 8,3 °C 7,2 °C 3,9 °C 82 % 1023,5 hPa 0,0 l/m² 0 min 0 W/m² 12,9 km/h (3 Bft) 100,00 %
03.03.2026 01:30 8,3 °C 7,2 °C 3,9 °C 83 % 1023,5 hPa 0,0 l/m² 0 min 0 W/m² 16,1 km/h (3 Bft) 97,87 %
03.03.2026 01:32 8,3 °C 7,2 °C 3,9 °C 83 % 1023,5 hPa 0,0 l/m² 0 min 0 W/m² 12,9 km/h (3 Bft) 100,00 %
03.03.2026 01:34 8,3 °C 7,2 °C 3,9 °C 83 % 1023,5 hPa 0,0 l/m² 0 min 0 W/m² 12,9 km/h (3 Bft) 100,00 %
03.03.2026 01:36 8,3 °C 7,2 °C 3,9 °C 83 % 1023,5 hPa 0,0 l/m² 0 min 0 W/m² 12,9 km/h (3 Bft) 100,00 %
03.03.2026 01:38 8,2 °C 7,2 °C 3,9 °C 83 % 1023,5 hPa 0,0 l/m² 0 min 0 W/m² 12,9 km/h (3 Bft) 95,74 %
03.03.2026 01:40 8,2 °C 7,2 °C 3,9 °C 83 % 1023,6 hPa 0,0 l/m² 0 min 0 W/m² 12,9 km/h (3 Bft) 100,00 %
03.03.2026 01:42 8,2 °C 7,2 °C 3,9 °C 83 % 1023,6 hPa 0,0 l/m² 0 min 0 W/m² 6,4 km/h (2 Bft) 95,74 %
03.03.2026 01:44 8,2 °C 7,2 °C 3,9 °C 83 % 1023,6 hPa 0,0 l/m² 0 min 0 W/m² 12,9 km/h (3 Bft) 95,74 %
03.03.2026 01:46 8,2 °C 7,2 °C 3,9 °C 83 % 1023,7 hPa 0,0 l/m² 0 min 0 W/m² 12,9 km/h (3 Bft) 100,00 %
03.03.2026 01:48 8,1 °C 7,2 °C 3,9 °C 83 % 1023,6 hPa 0,0 l/m² 0 min 0 W/m² 9,7 km/h (2 Bft) 97,87 %
03.03.2026 01:50 8,1 °C 7,2 °C 3,9 °C 83 % 1023,7 hPa 0,0 l/m² 0 min 0 W/m² 9,7 km/h (2 Bft) 95,74 %
03.03.2026 01:52 8,1 °C 7,2 °C 3,3 °C 83 % 1023,7 hPa 0,0 l/m² 0 min 0 W/m² 6,4 km/h (2 Bft) 97,87 %
03.03.2026 01:54 8,1 °C 7,2 °C 3,3 °C 83 % 1023,7 hPa 0,0 l/m² 0 min 0 W/m² 12,9 km/h (3 Bft) 56,52 %
03.03.2026 01:56 8,1 °C 7,2 °C 3,3 °C 83 % 1023,7 hPa 0,0 l/m² 0 min 0 W/m² 9,7 km/h (2 Bft) 95,65 %
03.03.2026 01:58 8,1 °C 7,2 °C 3,3 °C 83 % 1023,7 hPa 0,0 l/m² 0 min 0 W/m² 6,4 km/h (2 Bft) 95,65 %
03.03.2026 02:00 8,1 °C 6,7 °C 3,3 °C 83 % 1023,8 hPa 0,0 l/m² 0 min 0 W/m² 6,4 km/h (2 Bft) 97,87 %
03.03.2026 02:02 8,0 °C 6,7 °C 3,3 °C 83 % 1023,7 hPa 0,0 l/m² 0 min 0 W/m² 6,4 km/h (2 Bft) 97,87 %
03.03.2026 02:04 8,0 °C 6,7 °C 3,3 °C 83 % 1023,8 hPa 0,0 l/m² 0 min 0 W/m² 6,4 km/h (2 Bft) 93,62 %
03.03.2026 02:06 7,9 °C 6,7 °C 3,3 °C 83 % 1023,9 hPa 0,0 l/m² 0 min 0 W/m² 6,4 km/h (2 Bft) 94,83 %
03.03.2026 02:08 7,9 °C 6,7 °C 3,3 °C 84 % 1023,9 hPa 0,0 l/m² 0 min 0 W/m² 6,4 km/h (2 Bft) 94,59 %
03.03.2026 02:10 7,9 °C 6,7 °C 3,3 °C 84 % 1023,9 hPa 0,0 l/m² 0 min 0 W/m² 12,9 km/h (3 Bft) 95,65 %
03.03.2026 02:14 7,8 °C 6,7 °C 3,3 °C 84 % 1023,9 hPa 0,0 l/m² 0 min 0 W/m² 6,4 km/h (2 Bft) 100,00 %
03.03.2026 02:16 7,8 °C 6,7 °C 3,3 °C 84 % 1023,9 hPa 0,0 l/m² 0 min 0 W/m² 3,2 km/h (1 Bft) 97,83 %
03.03.2026 02:21 7,8 °C 6,7 °C 3,3 °C 84 % 1023,9 hPa 0,0 l/m² 0 min 0 W/m² 12,9 km/h (3 Bft) 66,67 %
03.03.2026 02:22 7,8 °C 6,7 °C 3,3 °C 84 % 1023,9 hPa 0,0 l/m² 0 min 0 W/m² 6,4 km/h (2 Bft) 100,00 %
03.03.2026 02:24 7,8 °C 6,7 °C 3,3 °C 84 % 1023,9 hPa 0,0 l/m² 0 min 0 W/m² 6,4 km/h (2 Bft) 91,49 %
03.03.2026 02:26 7,7 °C 6,7 °C 3,3 °C 84 % 1023,9 hPa 0,0 l/m² 0 min 0 W/m² 6,4 km/h (2 Bft) 95,74 %
03.03.2026 02:28 7,7 °C 6,7 °C 3,3 °C 84 % 1023,9 hPa 0,0 l/m² 0 min 0 W/m² 6,4 km/h (2 Bft) 95,74 %
03.03.2026 02:30 7,7 °C 6,7 °C 3,3 °C 84 % 1023,9 hPa 0,0 l/m² 0 min 0 W/m² 6,4 km/h (2 Bft) 95,65 %
03.03.2026 02:32 7,7 °C 6,7 °C 3,3 °C 84 % 1024,0 hPa 0,0 l/m² 0 min 0 W/m² 6,4 km/h (2 Bft) 95,74 %
03.03.2026 02:34 7,7 °C 6,7 °C 3,3 °C 84 % 1024,0 hPa 0,0 l/m² 0 min 0 W/m² 6,4 km/h (2 Bft) 93,62 %
03.03.2026 02:36 7,6 °C 6,7 °C 3,3 °C 84 % 1024,0 hPa 0,0 l/m² 0 min 0 W/m² 6,4 km/h (2 Bft) 93,62 %
03.03.2026 02:38 7,6 °C 6,7 °C 3,3 °C 84 % 1024,0 hPa 0,0 l/m² 0 min 0 W/m² 6,4 km/h (2 Bft) 89,36 %
03.03.2026 02:40 7,6 °C 6,7 °C 3,3 °C 84 % 1024,0 hPa 0,0 l/m² 0 min 0 W/m² 6,4 km/h (2 Bft) 91,49 %
03.03.2026 02:42 7,6 °C 6,7 °C 3,3 °C 84 % 1024,0 hPa 0,0 l/m² 0 min 0 W/m² 6,4 km/h (2 Bft) 93,48 %
03.03.2026 02:44 7,6 °C 6,7 °C 3,3 °C 85 % 1024,0 hPa 0,0 l/m² 0 min 0 W/m² 6,4 km/h (2 Bft) 97,87 %
03.03.2026 02:46 7,6 °C 6,7 °C 3,3 °C 84 % 1024,0 hPa 0,0 l/m² 0 min 0 W/m² 6,4 km/h (2 Bft) 97,87 %
03.03.2026 02:48 7,6 °C 6,7 °C 3,3 °C 85 % 1024,0 hPa 0,0 l/m² 0 min 0 W/m² 9,7 km/h (2 Bft) 97,87 %
03.03.2026 02:50 7,6 °C 6,7 °C 3,3 °C 85 % 1024,0 hPa 0,0 l/m² 0 min 0 W/m² 12,9 km/h (3 Bft) 97,87 %
03.03.2026 02:52 7,5 °C 6,7 °C 3,3 °C 85 % 1024,0 hPa 0,0 l/m² 0 min 0 W/m² 6,4 km/h (2 Bft) 97,83 %
03.03.2026 02:54 7,5 °C 6,7 °C 3,3 °C 85 % 1024,0 hPa 0,0 l/m² 0 min 0 W/m² 6,4 km/h (2 Bft) 100,00 %
03.03.2026 02:56 7,5 °C 6,7 °C 3,3 °C 85 % 1024,0 hPa 0,0 l/m² 0 min 0 W/m² 6,4 km/h (2 Bft) 97,87 %
03.03.2026 02:58 7,5 °C 6,7 °C 3,3 °C 85 % 1024,0 hPa 0,0 l/m² 0 min 0 W/m² 6,4 km/h (2 Bft) 97,87 %
03.03.2026 03:00 7,5 °C 6,7 °C 3,3 °C 85 % 1024,0 hPa 0,0 l/m² 0 min 0 W/m² 6,4 km/h (2 Bft) 97,87 %
03.03.2026 03:02 7,5 °C 6,7 °C 3,3 °C 85 % 1024,0 hPa 0,0 l/m² 0 min 0 W/m² 12,9 km/h (3 Bft) 97,87 %
03.03.2026 03:04 7,4 °C 6,7 °C 3,3 °C 85 % 1024,0 hPa 0,0 l/m² 0 min 0 W/m² 6,4 km/h (2 Bft) 97,87 %
03.03.2026 03:06 7,4 °C 6,7 °C 3,3 °C 85 % 1024,0 hPa 0,0 l/m² 0 min 0 W/m² 6,4 km/h (2 Bft) 95,74 %
03.03.2026 03:08 7,4 °C 6,7 °C 3,3 °C 85 % 1024,1 hPa 0,0 l/m² 0 min 0 W/m² 6,4 km/h (2 Bft) 97,87 %
03.03.2026 03:10 7,4 °C 6,7 °C 2,8 °C 85 % 1024,1 hPa 0,0 l/m² 0 min 0 W/m² 6,4 km/h (2 Bft) 95,74 %
03.03.2026 03:12 7,4 °C 6,7 °C 2,8 °C 85 % 1024,1 hPa 0,0 l/m² 0 min 0 W/m² 6,4 km/h (2 Bft) 100,00 %
03.03.2026 03:14 7,4 °C 6,7 °C 2,8 °C 85 % 1024,1 hPa 0,0 l/m² 0 min 0 W/m² 6,4 km/h (2 Bft) 100,00 %
03.03.2026 03:16 7,4 °C 6,7 °C 2,8 °C 85 % 1024,1 hPa 0,0 l/m² 0 min 0 W/m² 9,7 km/h (2 Bft) 97,83 %
03.03.2026 03:18 7,4 °C 6,7 °C 2,8 °C 85 % 1024,1 hPa 0,0 l/m² 0 min 0 W/m² 9,7 km/h (2 Bft) 100,00 %
03.03.2026 03:20 7,3 °C 6,7 °C 2,8 °C 85 % 1024,1 hPa 0,0 l/m² 0 min 0 W/m² 6,4 km/h (2 Bft) 97,87 %
03.03.2026 03:22 7,3 °C 6,1 °C 2,8 °C 85 % 1024,1 hPa 0,0 l/m² 0 min 0 W/m² 6,4 km/h (2 Bft) 100,00 %
03.03.2026 03:24 7,3 °C 6,1 °C 2,8 °C 85 % 1024,1 hPa 0,0 l/m² 0 min 0 W/m² 6,4 km/h (2 Bft) 100,00 %
03.03.2026 03:26 7,3 °C 6,1 °C 2,8 °C 85 % 1024,1 hPa 0,0 l/m² 0 min 0 W/m² 3,2 km/h (1 Bft) 100,00 %
03.03.2026 03:28 7,3 °C 6,1 °C 2,8 °C 85 % 1024,1 hPa 0,0 l/m² 0 min 0 W/m² 6,4 km/h (2 Bft) 100,00 %
03.03.2026 03:30 7,3 °C 6,1 °C 2,8 °C 85 % 1024,1 hPa 0,0 l/m² 0 min 0 W/m² 6,4 km/h (2 Bft) 100,00 %
03.03.2026 03:32 7,2 °C 6,1 °C 2,8 °C 85 % 1024,2 hPa 0,0 l/m² 0 min 0 W/m² 3,2 km/h (1 Bft) 100,00 %
03.03.2026 03:34 7,2 °C 6,1 °C 2,8 °C 85 % 1024,1 hPa 0,0 l/m² 0 min 0 W/m² 3,2 km/h (1 Bft) 97,87 %
03.03.2026 03:36 7,2 °C 6,1 °C 2,8 °C 85 % 1024,1 hPa 0,0 l/m² 0 min 0 W/m² 3,2 km/h (1 Bft) 100,00 %
03.03.2026 03:38 7,2 °C 6,1 °C 2,8 °C 85 % 1024,1 hPa 0,0 l/m² 0 min 0 W/m² 3,2 km/h (1 Bft) 100,00 %
03.03.2026 03:40 7,2 °C 6,1 °C 2,8 °C 85 % 1024,1 hPa 0,0 l/m² 0 min 0 W/m² 12,9 km/h (3 Bft) 100,00 %
03.03.2026 03:42 7,2 °C 6,1 °C 2,8 °C 85 % 1024,1 hPa 0,0 l/m² 0 min 0 W/m² 3,2 km/h (1 Bft) 100,00 %
03.03.2026 03:44 7,1 °C 6,1 °C 2,8 °C 85 % 1024,1 hPa 0,0 l/m² 0 min 0 W/m² 3,2 km/h (1 Bft) 100,00 %
03.03.2026 03:46 7,1 °C 6,1 °C 2,8 °C 85 % 1024,1 hPa 0,0 l/m² 0 min 0 W/m² 0,0 km/h (0 Bft) 97,87 %
03.03.2026 03:48 7,1 °C 6,1 °C 2,8 °C 85 % 1024,1 hPa 0,0 l/m² 0 min 0 W/m² 0,0 km/h (0 Bft) 100,00 %
03.03.2026 03:50 7,1 °C 6,1 °C 2,8 °C 85 % 1024,2 hPa 0,0 l/m² 0 min 0 W/m² 0,0 km/h (0 Bft) 100,00 %
03.03.2026 03:52 7,1 °C 6,1 °C 2,8 °C 86 % 1024,1 hPa 0,0 l/m² 0 min 0 W/m² 0,0 km/h (0 Bft) 97,87 %
03.03.2026 03:54 7,1 °C 6,1 °C 2,8 °C 86 % 1024,2 hPa 0,0 l/m² 0 min 0 W/m² 0,0 km/h (0 Bft) 100,00 %
03.03.2026 03:56 7,0 °C 6,1 °C 2,8 °C 86 % 1024,2 hPa 0,0 l/m² 0 min 0 W/m² 0,0 km/h (0 Bft) 100,00 %
03.03.2026 03:58 7,0 °C 6,1 °C 2,8 °C 86 % 1024,2 hPa 0,0 l/m² 0 min 0 W/m² 0,0 km/h (0 Bft) 100,00 %
03.03.2026 04:00 7,0 °C 6,1 °C 2,8 °C 86 % 1024,2 hPa 0,0 l/m² 0 min 0 W/m² 0,0 km/h (0 Bft) 100,00 %
03.03.2026 04:02 7,0 °C 6,1 °C 2,8 °C 85 % 1024,3 hPa 0,0 l/m² 0 min 0 W/m² 0,0 km/h (0 Bft) 100,00 %
03.03.2026 04:04 6,9 °C 6,1 °C 2,8 °C 85 % 1024,2 hPa 0,0 l/m² 0 min 0 W/m² 0,0 km/h (0 Bft) 97,87 %
03.03.2026 04:06 6,9 °C 6,1 °C 2,8 °C 86 % 1024,3 hPa 0,0 l/m² 0 min 0 W/m² 0,0 km/h (0 Bft) 97,87 %
03.03.2026 04:08 6,9 °C 6,1 °C 2,8 °C 86 % 1024,3 hPa 0,0 l/m² 0 min 0 W/m² 0,0 km/h (0 Bft) 100,00 %
03.03.2026 04:10 6,9 °C 6,1 °C 2,8 °C 86 % 1024,3 hPa 0,0 l/m² 0 min 0 W/m² 0,0 km/h (0 Bft) 97,87 %
03.03.2026 04:12 6,9 °C 6,1 °C 2,8 °C 86 % 1024,3 hPa 0,0 l/m² 0 min 0 W/m² 0,0 km/h (0 Bft) 100,00 %
03.03.2026 04:14 6,8 °C 6,1 °C 2,8 °C 86 % 1024,3 hPa 0,0 l/m² 0 min 0 W/m² 0,0 km/h (0 Bft) 100,00 %
03.03.2026 04:16 6,8 °C 6,1 °C 2,8 °C 86 % 1024,3 hPa 0,0 l/m² 0 min 0 W/m² 0,0 km/h (0 Bft) 97,83 %
03.03.2026 04:18 6,8 °C 6,1 °C 2,8 °C 86 % 1024,3 hPa 0,0 l/m² 0 min 0 W/m² 0,0 km/h (0 Bft) 95,74 %
03.03.2026 04:20 6,8 °C 6,1 °C 2,8 °C 86 % 1024,3 hPa 0,0 l/m² 0 min 0 W/m² 0,0 km/h (0 Bft) 97,87 %
03.03.2026 04:22 6,8 °C 6,1 °C 2,8 °C 86 % 1024,3 hPa 0,0 l/m² 0 min 0 W/m² 0,0 km/h (0 Bft) 97,87 %
03.03.2026 04:24 6,8 °C 6,1 °C 2,8 °C 86 % 1024,3 hPa 0,0 l/m² 0 min 0 W/m² 0,0 km/h (0 Bft) 97,87 %
03.03.2026 04:26 6,8 °C 6,1 °C 2,8 °C 86 % 1024,4 hPa 0,0 l/m² 0 min 0 W/m² 0,0 km/h (0 Bft) 97,87 %
03.03.2026 04:28 6,8 °C 6,1 °C 2,8 °C 86 % 1024,3 hPa 0,0 l/m² 0 min 0 W/m² 12,9 km/h (3 Bft) 95,65 %
03.03.2026 04:30 6,8 °C 6,1 °C 2,8 °C 86 % 1024,4 hPa 0,0 l/m² 0 min 0 W/m² 9,7 km/h (2 Bft) 95,74 %
03.03.2026 04:32 6,8 °C 6,1 °C 2,8 °C 86 % 1024,4 hPa 0,0 l/m² 0 min 0 W/m² 6,4 km/h (2 Bft) 95,74 %
03.03.2026 04:34 6,8 °C 6,1 °C 2,8 °C 86 % 1024,4 hPa 0,0 l/m² 0 min 0 W/m² 3,2 km/h (1 Bft) 95,74 %
03.03.2026 04:36 6,8 °C 6,1 °C 2,8 °C 86 % 1024,4 hPa 0,0 l/m² 0 min 0 W/m² 6,4 km/h (2 Bft) 93,62 %
03.03.2026 04:38 6,8 °C 6,1 °C 2,8 °C 86 % 1024,4 hPa 0,0 l/m² 0 min 0 W/m² 6,4 km/h (2 Bft) 97,87 %
03.03.2026 04:40 6,8 °C 6,1 °C 2,8 °C 86 % 1024,4 hPa 0,0 l/m² 0 min 0 W/m² 12,9 km/h (3 Bft) 95,65 %
03.03.2026 04:42 6,8 °C 6,1 °C 2,8 °C 86 % 1024,4 hPa 0,0 l/m² 0 min 0 W/m² 12,9 km/h (3 Bft) 95,74 %
03.03.2026 04:44 6,8 °C 6,1 °C 2,8 °C 86 % 1024,5 hPa 0,0 l/m² 0 min 0 W/m² 16,1 km/h (3 Bft) 95,74 %
03.03.2026 04:46 6,8 °C 6,1 °C 2,8 °C 86 % 1024,5 hPa 0,0 l/m² 0 min 0 W/m² 16,1 km/h (3 Bft) 95,74 %
03.03.2026 04:48 6,7 °C 6,1 °C 2,8 °C 86 % 1024,6 hPa 0,0 l/m² 0 min 0 W/m² 6,4 km/h (2 Bft) 91,49 %
03.03.2026 04:50 6,7 °C 6,1 °C 2,8 °C 86 % 1024,6 hPa 0,0 l/m² 0 min 0 W/m² 6,4 km/h (2 Bft) 95,74 %
03.03.2026 04:52 6,7 °C 6,1 °C 2,2 °C 86 % 1024,6 hPa 0,0 l/m² 0 min 0 W/m² 12,9 km/h (3 Bft) 95,65 %
03.03.2026 04:54 6,7 °C 6,1 °C 2,2 °C 86 % 1024,6 hPa 0,0 l/m² 0 min 0 W/m² 6,4 km/h (2 Bft) 95,74 %
03.03.2026 04:56 6,7 °C 6,1 °C 2,2 °C 86 % 1024,6 hPa 0,0 l/m² 0 min 0 W/m² 6,4 km/h (2 Bft) 97,87 %
03.03.2026 04:58 6,7 °C 5,6 °C 2,2 °C 86 % 1024,6 hPa 0,0 l/m² 0 min 0 W/m² 9,7 km/h (2 Bft) 97,87 %
03.03.2026 05:00 6,7 °C 5,6 °C 2,2 °C 86 % 1024,7 hPa 0,0 l/m² 0 min 0 W/m² 6,4 km/h (2 Bft) 95,74 %
03.03.2026 05:02 6,7 °C 5,6 °C 2,2 °C 86 % 1024,7 hPa 0,0 l/m² 0 min 0 W/m² 12,9 km/h (3 Bft) 97,83 %
03.03.2026 05:04 6,7 °C 5,6 °C 2,2 °C 86 % 1024,7 hPa 0,0 l/m² 0 min 0 W/m² 6,4 km/h (2 Bft) 97,87 %
03.03.2026 05:06 6,7 °C 5,6 °C 2,2 °C 86 % 1024,7 hPa 0,0 l/m² 0 min 0 W/m² 6,4 km/h (2 Bft) 97,87 %
03.03.2026 05:08 6,7 °C 5,6 °C 2,2 °C 86 % 1024,7 hPa 0,0 l/m² 0 min 0 W/m² 6,4 km/h (2 Bft) 97,87 %
03.03.2026 05:10 6,7 °C 5,6 °C 2,2 °C 86 % 1024,7 hPa 0,0 l/m² 0 min 0 W/m² 12,9 km/h (3 Bft) 97,87 %
03.03.2026 05:12 6,6 °C 5,6 °C 2,2 °C 86 % 1024,7 hPa 0,0 l/m² 0 min 0 W/m² 6,4 km/h (2 Bft) 97,87 %
03.03.2026 05:14 6,6 °C 5,6 °C 2,2 °C 86 % 1024,7 hPa 0,0 l/m² 0 min 0 W/m² 6,4 km/h (2 Bft) 95,65 %
03.03.2026 05:16 6,6 °C 5,6 °C 2,2 °C 86 % 1024,8 hPa 0,0 l/m² 0 min 0 W/m² 6,4 km/h (2 Bft) 97,87 %
03.03.2026 05:18 6,6 °C 5,6 °C 2,2 °C 86 % 1024,8 hPa 0,0 l/m² 0 min 0 W/m² 12,9 km/h (3 Bft) 97,87 %
03.03.2026 05:20 6,6 °C 5,6 °C 2,2 °C 86 % 1024,8 hPa 0,0 l/m² 0 min 0 W/m² 3,2 km/h (1 Bft) 97,87 %
03.03.2026 05:22 6,6 °C 5,6 °C 2,2 °C 86 % 1024,9 hPa 0,0 l/m² 0 min 0 W/m² 3,2 km/h (1 Bft) 97,87 %
03.03.2026 05:24 6,6 °C 5,6 °C 2,2 °C 86 % 1024,9 hPa 0,0 l/m² 0 min 0 W/m² 3,2 km/h (1 Bft) 95,74 %
03.03.2026 05:26 6,5 °C 5,6 °C 2,2 °C 86 % 1024,9 hPa 0,0 l/m² 0 min 0 W/m² 6,4 km/h (2 Bft) 95,65 %
03.03.2026 05:28 6,5 °C 5,6 °C 2,2 °C 86 % 1024,9 hPa 0,0 l/m² 0 min 0 W/m² 6,4 km/h (2 Bft) 97,87 %
03.03.2026 05:30 6,5 °C 5,6 °C 2,2 °C 86 % 1024,8 hPa 0,0 l/m² 0 min 0 W/m² 6,4 km/h (2 Bft) 97,87 %
03.03.2026 05:32 6,5 °C 5,6 °C 2,2 °C 86 % 1024,8 hPa 0,0 l/m² 0 min 0 W/m² 6,4 km/h (2 Bft) 97,87 %
03.03.2026 05:34 6,5 °C 5,6 °C 2,2 °C 86 % 1024,8 hPa 0,0 l/m² 0 min 0 W/m² 6,4 km/h (2 Bft) 97,87 %
03.03.2026 05:36 6,5 °C 5,6 °C 2,2 °C 86 % 1024,9 hPa 0,0 l/m² 0 min 0 W/m² 6,4 km/h (2 Bft) 95,74 %
03.03.2026 05:38 6,5 °C 5,6 °C 2,2 °C 86 % 1024,9 hPa 0,0 l/m² 0 min 0 W/m² 6,4 km/h (2 Bft) 97,83 %
03.03.2026 05:40 6,5 °C 5,6 °C 2,2 °C 86 % 1024,9 hPa 0,0 l/m² 0 min 0 W/m² 6,4 km/h (2 Bft) 97,87 %
03.03.2026 05:42 6,4 °C 5,6 °C 2,2 °C 86 % 1025,0 hPa 0,0 l/m² 0 min 0 W/m² 6,4 km/h (2 Bft) 97,87 %
03.03.2026 05:44 6,4 °C 5,6 °C 2,2 °C 86 % 1025,0 hPa 0,0 l/m² 0 min 0 W/m² 6,4 km/h (2 Bft) 95,74 %
03.03.2026 05:46 6,4 °C 5,6 °C 2,2 °C 86 % 1025,0 hPa 0,0 l/m² 0 min 0 W/m² 12,9 km/h (3 Bft) 95,74 %
03.03.2026 05:48 6,4 °C 5,6 °C 2,2 °C 86 % 1024,9 hPa 0,0 l/m² 0 min 0 W/m² 6,4 km/h (2 Bft) 95,74 %
03.03.2026 05:50 6,4 °C 5,6 °C 2,2 °C 86 % 1025,0 hPa 0,0 l/m² 0 min 0 W/m² 6,4 km/h (2 Bft) 97,83 %
03.03.2026 05:52 6,4 °C 5,6 °C 2,2 °C 86 % 1025,0 hPa 0,0 l/m² 0 min 0 W/m² 6,4 km/h (2 Bft) 93,62 %
03.03.2026 05:54 6,3 °C 5,6 °C 2,2 °C 86 % 1025,0 hPa 0,0 l/m² 0 min 0 W/m² 3,2 km/h (1 Bft) 97,87 %
03.03.2026 05:56 6,3 °C 5,6 °C 2,2 °C 86 % 1025,0 hPa 0,0 l/m² 0 min 0 W/m² 3,2 km/h (1 Bft) 100,00 %
03.03.2026 05:58 6,3 °C 5,6 °C 2,2 °C 86 % 1025,0 hPa 0,0 l/m² 0 min 0 W/m² 12,9 km/h (3 Bft) 100,00 %
03.03.2026 06:00 6,3 °C 5,6 °C 2,2 °C 86 % 1025,0 hPa 0,0 l/m² 0 min 0 W/m² 12,9 km/h (3 Bft) 100,00 %
03.03.2026 06:02 6,3 °C 5,6 °C 2,2 °C 86 % 1025,0 hPa 0,0 l/m² 0 min 0 W/m² 12,9 km/h (3 Bft) 97,83 %
03.03.2026 06:04 6,3 °C 5,6 °C 2,2 °C 86 % 1025,0 hPa 0,0 l/m² 0 min 0 W/m² 16,1 km/h (3 Bft) 100,00 %
03.03.2026 06:07 6,3 °C 5,6 °C 2,2 °C 86 % 1024,9 hPa 0,0 l/m² 0 min 0 W/m² 12,9 km/h (3 Bft) 100,00 %
03.03.2026 06:08 6,3 °C 5,6 °C 2,2 °C 86 % 1024,9 hPa 0,0 l/m² 0 min 0 W/m² 12,9 km/h (3 Bft) 100,00 %
03.03.2026 06:12 6,3 °C 5,6 °C 2,2 °C 86 % 1025,0 hPa 0,0 l/m² 0 min 0 W/m² 16,1 km/h (3 Bft) 98,15 %
03.03.2026 06:14 6,3 °C 5,6 °C 2,2 °C 86 % 1025,1 hPa 0,0 l/m² 0 min 0 W/m² 9,7 km/h (2 Bft) 97,87 %
03.03.2026 06:16 6,3 °C 5,6 °C 2,2 °C 86 % 1025,1 hPa 0,0 l/m² 0 min 0 W/m² 12,9 km/h (3 Bft) 98,00 %
03.03.2026 06:18 6,3 °C 5,6 °C 2,2 °C 86 % 1025,0 hPa 0,0 l/m² 0 min 0 W/m² 12,9 km/h (3 Bft) 97,92 %
03.03.2026 06:20 6,2 °C 5,6 °C 2,2 °C 86 % 1025,0 hPa 0,0 l/m² 0 min 0 W/m² 9,7 km/h (2 Bft) 97,87 %
03.03.2026 06:22 6,2 °C 5,6 °C 2,2 °C 86 % 1025,0 hPa 0,0 l/m² 0 min 0 W/m² 6,4 km/h (2 Bft) 97,14 %
03.03.2026 06:24 6,2 °C 5,6 °C 2,2 °C 86 % 1025,0 hPa 0,0 l/m² 0 min 0 W/m² 16,1 km/h (3 Bft) 95,65 %
03.03.2026 06:26 6,2 °C 5,6 °C 2,2 °C 86 % 1025,0 hPa 0,0 l/m² 0 min 0 W/m² 12,9 km/h (3 Bft) 97,87 %
03.03.2026 06:28 6,2 °C 5,6 °C 2,2 °C 86 % 1025,0 hPa 0,0 l/m² 0 min 0 W/m² 16,1 km/h (3 Bft) 97,87 %
03.03.2026 06:30 6,2 °C 5,6 °C 2,2 °C 86 % 1025,0 hPa 0,0 l/m² 0 min 0 W/m² 6,4 km/h (2 Bft) 97,87 %
03.03.2026 06:32 6,2 °C 5,6 °C 2,2 °C 86 % 1025,1 hPa 0,0 l/m² 0 min 0 W/m² 9,7 km/h (2 Bft) 96,30 %
03.03.2026 06:34 6,2 °C 5,6 °C 2,2 °C 86 % 1025,1 hPa 0,0 l/m² 0 min 0 W/m² 12,9 km/h (3 Bft) 96,00 %
03.03.2026 06:36 6,2 °C 5,6 °C 2,2 °C 86 % 1025,1 hPa 0,0 l/m² 0 min 0 W/m² 9,7 km/h (2 Bft) 95,83 %
03.03.2026 06:38 6,2 °C 5,6 °C 2,2 °C 86 % 1025,0 hPa 0,0 l/m² 0 min 0 W/m² 12,9 km/h (3 Bft) 70,21 %
03.03.2026 06:40 6,2 °C 5,6 °C 1,7 °C 86 % 1025,1 hPa 0,0 l/m² 0 min 0 W/m² 6,4 km/h (2 Bft) 75,61 %
03.03.2026 06:42 6,2 °C 5,6 °C 1,7 °C 86 % 1025,1 hPa 0,0 l/m² 0 min 0 W/m² 12,9 km/h (3 Bft) 95,74 %
03.03.2026 06:44 6,2 °C 5,6 °C 1,7 °C 86 % 1025,1 hPa 0,0 l/m² 0 min 0 W/m² 12,9 km/h (3 Bft) 97,87 %
03.03.2026 06:46 6,2 °C 5,6 °C 1,7 °C 86 % 1025,1 hPa 0,0 l/m² 0 min 0 W/m² 6,4 km/h (2 Bft) 97,14 %
03.03.2026 06:48 6,2 °C 5,6 °C 1,7 °C 86 % 1025,1 hPa 0,0 l/m² 0 min 0 W/m² 6,4 km/h (2 Bft) 98,15 %
03.03.2026 06:50 6,2 °C 5,6 °C 1,7 °C 86 % 1025,1 hPa 0,0 l/m² 0 min 0 W/m² 16,1 km/h (3 Bft) 97,87 %
03.03.2026 06:52 6,2 °C 5,6 °C 1,7 °C 86 % 1025,1 hPa 0,0 l/m² 0 min 0 W/m² 6,4 km/h (2 Bft) 98,00 %
03.03.2026 06:54 6,1 °C 5,6 °C 1,7 °C 86 % 1025,1 hPa 0,0 l/m² 0 min 0 W/m² 16,1 km/h (3 Bft) 97,83 %
03.03.2026 06:56 6,1 °C 5,6 °C 1,7 °C 86 % 1025,1 hPa 0,0 l/m² 0 min 0 W/m² 9,7 km/h (2 Bft) 98,00 %
03.03.2026 06:58 6,1 °C 5,6 °C 1,7 °C 86 % 1025,2 hPa 0,0 l/m² 0 min 0 W/m² 6,4 km/h (2 Bft) 97,87 %
03.03.2026 07:00 6,1 °C 5,6 °C 1,7 °C 86 % 1025,2 hPa 0,0 l/m² 0 min 0 W/m² 12,9 km/h (3 Bft) 97,22 %
03.03.2026 07:02 6,1 °C 5,6 °C 1,7 °C 86 % 1025,2 hPa 0,0 l/m² 0 min 0 W/m² 6,4 km/h (2 Bft) 93,62 %
03.03.2026 07:04 6,1 °C 5,6 °C 1,7 °C 86 % 1025,2 hPa 0,0 l/m² 0 min 0 W/m² 12,9 km/h (3 Bft) 97,92 %
03.03.2026 07:06 6,1 °C 5,6 °C 1,7 °C 86 % 1025,2 hPa 0,0 l/m² 0 min 0 W/m² 12,9 km/h (3 Bft) 94,55 %
03.03.2026 07:08 6,1 °C 5,6 °C 1,7 °C 86 % 1025,2 hPa 0,0 l/m² 0 min 0 W/m² 12,9 km/h (3 Bft) 97,83 %
03.03.2026 07:10 6,1 °C 5,6 °C 1,7 °C 86 % 1025,1 hPa 0,0 l/m² 0 min 0 W/m² 12,9 km/h (3 Bft) 97,87 %
03.03.2026 07:12 6,1 °C 5,6 °C 1,7 °C 86 % 1025,2 hPa 0,0 l/m² 0 min 0 W/m² 12,9 km/h (3 Bft) 98,00 %
03.03.2026 07:14 6,1 °C 5,6 °C 1,7 °C 86 % 1025,2 hPa 0,0 l/m² 0 min 0 W/m² 12,9 km/h (3 Bft) 97,22 %
03.03.2026 07:16 6,1 °C 5,6 °C 1,7 °C 86 % 1025,2 hPa 0,0 l/m² 0 min 0 W/m² 12,9 km/h (3 Bft) 100,00 %
03.03.2026 07:18 6,1 °C 5,6 °C 1,7 °C 86 % 1025,2 hPa 0,0 l/m² 0 min 0 W/m² 12,9 km/h (3 Bft) 100,00 %
03.03.2026 07:20 6,1 °C 5,6 °C 1,7 °C 86 % 1025,3 hPa 0,0 l/m² 0 min 3 W/m² 12,9 km/h (3 Bft) 98,15 %
03.03.2026 07:22 6,1 °C 5,6 °C 1,7 °C 86 % 1025,3 hPa 0,0 l/m² 0 min 5 W/m² 12,9 km/h (3 Bft) 100,00 %
03.03.2026 07:24 6,1 °C 5,6 °C 1,7 °C 86 % 1025,3 hPa 0,0 l/m² 0 min 5 W/m² 12,9 km/h (3 Bft) 97,22 %
03.03.2026 07:26 6,1 °C 5,6 °C 1,7 °C 86 % 1025,3 hPa 0,0 l/m² 0 min 7 W/m² 6,4 km/h (2 Bft) 100,00 %
03.03.2026 07:28 6,1 °C 5,6 °C 1,7 °C 86 % 1025,3 hPa 0,0 l/m² 0 min 8 W/m² 16,1 km/h (3 Bft) 100,00 %
03.03.2026 07:30 6,1 °C 5,6 °C 1,7 °C 86 % 1025,3 hPa 0,0 l/m² 0 min 9 W/m² 6,4 km/h (2 Bft) 100,00 %
03.03.2026 07:32 6,1 °C 5,0 °C 1,7 °C 86 % 1025,3 hPa 0,0 l/m² 0 min 9 W/m² 12,9 km/h (3 Bft) 100,00 %
03.03.2026 07:34 6,1 °C 5,6 °C 1,7 °C 86 % 1025,3 hPa 0,0 l/m² 0 min 11 W/m² 9,7 km/h (2 Bft) 95,65 %
03.03.2026 07:36 6,1 °C 5,6 °C 1,7 °C 86 % 1025,3 hPa 0,0 l/m² 0 min 11 W/m² 12,9 km/h (3 Bft) 100,00 %
03.03.2026 07:38 6,1 °C 5,6 °C 1,7 °C 86 % 1025,4 hPa 0,0 l/m² 0 min 12 W/m² 12,9 km/h (3 Bft) 98,18 %
03.03.2026 07:40 6,1 °C 5,6 °C 1,7 °C 86 % 1025,3 hPa 0,0 l/m² 0 min 12 W/m² 12,9 km/h (3 Bft) 100,00 %
03.03.2026 07:42 6,1 °C 5,6 °C 1,7 °C 86 % 1025,3 hPa 0,0 l/m² 0 min 13 W/m² 12,9 km/h (3 Bft) 100,00 %
03.03.2026 07:44 6,1 °C 5,6 °C 1,7 °C 87 % 1025,3 hPa 0,0 l/m² 0 min 14 W/m² 9,7 km/h (2 Bft) 100,00 %
03.03.2026 07:46 6,1 °C 5,6 °C 1,7 °C 87 % 1025,4 hPa 0,0 l/m² 0 min 15 W/m² 12,9 km/h (3 Bft) 97,83 %
03.03.2026 07:48 6,1 °C 5,6 °C 1,7 °C 87 % 1025,4 hPa 0,0 l/m² 0 min 16 W/m² 12,9 km/h (3 Bft) 100,00 %
03.03.2026 07:50 6,1 °C 5,6 °C 1,7 °C 87 % 1025,4 hPa 0,0 l/m² 0 min 17 W/m² 12,9 km/h (3 Bft) 100,00 %
03.03.2026 07:52 6,1 °C 5,6 °C 1,7 °C 87 % 1025,5 hPa 0,0 l/m² 0 min 18 W/m² 12,9 km/h (3 Bft) 97,96 %
03.03.2026 07:54 6,1 °C 5,6 °C 1,7 °C 87 % 1025,5 hPa 0,0 l/m² 0 min 18 W/m² 9,7 km/h (2 Bft) 100,00 %
03.03.2026 07:56 6,1 °C 5,6 °C 1,7 °C 87 % 1025,5 hPa 0,0 l/m² 0 min 19 W/m² 9,7 km/h (2 Bft) 100,00 %
03.03.2026 07:58 6,1 °C 5,6 °C 1,7 °C 87 % 1025,6 hPa 0,0 l/m² 0 min 19 W/m² 12,9 km/h (3 Bft) 98,15 %
03.03.2026 08:00 6,1 °C 5,6 °C 1,7 °C 87 % 1025,6 hPa 0,0 l/m² 0 min 19 W/m² 6,4 km/h (2 Bft) 95,74 %
03.03.2026 08:02 6,1 °C 5,6 °C 1,7 °C 87 % 1025,6 hPa 0,0 l/m² 0 min 21 W/m² 12,9 km/h (3 Bft) 97,87 %
03.03.2026 08:04 6,1 °C 5,6 °C 1,7 °C 87 % 1025,6 hPa 0,0 l/m² 0 min 21 W/m² 12,9 km/h (3 Bft) 95,92 %
03.03.2026 08:06 6,1 °C 5,6 °C 2,2 °C 87 % 1025,6 hPa 0,0 l/m² 0 min 21 W/m² 6,4 km/h (2 Bft) 97,83 %
03.03.2026 08:08 6,1 °C 5,6 °C 2,2 °C 87 % 1025,7 hPa 0,0 l/m² 0 min 23 W/m² 16,1 km/h (3 Bft) 94,44 %
03.03.2026 08:10 6,1 °C 5,6 °C 2,2 °C 87 % 1025,7 hPa 0,0 l/m² 0 min 23 W/m² 12,9 km/h (3 Bft) 92,45 %
03.03.2026 08:12 6,1 °C 5,6 °C 2,2 °C 87 % 1025,7 hPa 0,0 l/m² 0 min 23 W/m² 12,9 km/h (3 Bft) 91,49 %
03.03.2026 08:14 6,2 °C 5,6 °C 2,2 °C 87 % 1025,7 hPa 0,0 l/m² 0 min 25 W/m² 12,9 km/h (3 Bft) 94,00 %
03.03.2026 08:16 6,2 °C 6,1 °C 2,2 °C 87 % 1025,7 hPa 0,0 l/m² 0 min 25 W/m² 12,9 km/h (3 Bft) 91,30 %
03.03.2026 08:18 6,2 °C 6,1 °C 2,2 °C 87 % 1025,7 hPa 0,0 l/m² 0 min 25 W/m² 9,7 km/h (2 Bft) 93,62 %
03.03.2026 08:20 6,2 °C 6,1 °C 2,2 °C 87 % 1025,8 hPa 0,0 l/m² 0 min 26 W/m² 12,9 km/h (3 Bft) 95,92 %
03.03.2026 08:22 6,3 °C 6,1 °C 2,2 °C 87 % 1025,7 hPa 0,0 l/m² 0 min 26 W/m² 6,4 km/h (2 Bft) 93,62 %
03.03.2026 08:24 6,3 °C 6,1 °C 2,2 °C 87 % 1025,8 hPa 0,0 l/m² 0 min 26 W/m² 12,9 km/h (3 Bft) 97,14 %
03.03.2026 08:26 6,3 °C 6,1 °C 2,2 °C 87 % 1025,8 hPa 0,0 l/m² 0 min 26 W/m² 6,4 km/h (2 Bft) 91,49 %
03.03.2026 08:28 6,3 °C 6,1 °C 2,2 °C 87 % 1025,8 hPa 0,0 l/m² 0 min 28 W/m² 6,4 km/h (2 Bft) 96,23 %
03.03.2026 08:30 6,4 °C 6,1 °C 2,2 °C 87 % 1025,9 hPa 0,0 l/m² 0 min 28 W/m² 12,9 km/h (3 Bft) 91,49 %
03.03.2026 08:32 6,4 °C 6,1 °C 2,2 °C 87 % 1025,9 hPa 0,0 l/m² 0 min 28 W/m² 6,4 km/h (2 Bft) 96,00 %
03.03.2026 08:34 6,5 °C 6,1 °C 2,8 °C 87 % 1025,9 hPa 0,0 l/m² 0 min 30 W/m² 6,4 km/h (2 Bft) 95,92 %
03.03.2026 08:36 6,5 °C 6,7 °C 2,8 °C 87 % 1026,0 hPa 0,0 l/m² 0 min 30 W/m² 6,4 km/h (2 Bft) 97,87 %
03.03.2026 08:38 6,6 °C 6,7 °C 2,8 °C 87 % 1026,0 hPa 0,0 l/m² 0 min 30 W/m² 9,7 km/h (2 Bft) 91,43 %
03.03.2026 08:40 6,6 °C 6,7 °C 2,8 °C 87 % 1026,0 hPa 0,0 l/m² 0 min 31 W/m² 12,9 km/h (3 Bft) 98,11 %
03.03.2026 08:42 6,7 °C 6,7 °C 2,8 °C 87 % 1026,0 hPa 0,0 l/m² 0 min 32 W/m² 12,9 km/h (3 Bft) 95,74 %
03.03.2026 08:44 6,7 °C 6,7 °C 2,8 °C 87 % 1026,0 hPa 0,0 l/m² 0 min 32 W/m² 12,9 km/h (3 Bft) 97,87 %
03.03.2026 08:46 6,7 °C 6,7 °C 2,8 °C 87 % 1026,0 hPa 0,0 l/m² 0 min 37 W/m² 12,9 km/h (3 Bft) 91,49 %
03.03.2026 08:48 6,8 °C 6,7 °C 2,8 °C 87 % 1026,1 hPa 0,0 l/m² 2 min 131 W/m² 12,9 km/h (3 Bft) 95,74 %
03.03.2026 08:50 6,8 °C 6,7 °C 2,8 °C 87 % 1026,0 hPa 0,0 l/m² 2 min 169 W/m² 12,9 km/h (3 Bft) 95,74 %
03.03.2026 08:52 6,9 °C 7,2 °C 2,8 °C 87 % 1026,1 hPa 0,0 l/m² 2 min 180 W/m² 16,1 km/h (3 Bft) 95,65 %
03.03.2026 08:54 7,0 °C 7,8 °C 3,3 °C 87 % 1026,1 hPa 0,0 l/m² 2 min 177 W/m² 6,4 km/h (2 Bft) 97,87 %
03.03.2026 08:56 7,1 °C 9,4 °C 3,3 °C 87 % 1026,1 hPa 0,0 l/m² 2 min 122 W/m² 12,9 km/h (3 Bft) 97,87 %
03.03.2026 08:58 7,2 °C 10,0 °C 3,3 °C 87 % 1026,0 hPa 0,0 l/m² 2 min 129 W/m² 16,1 km/h (3 Bft) 100,00 %
03.03.2026 09:00 7,3 °C 10,6 °C 3,3 °C 87 % 1026,0 hPa 0,0 l/m² 2 min 203 W/m² 12,9 km/h (3 Bft) 97,87 %
03.03.2026 09:02 7,4 °C 11,7 °C 3,3 °C 87 % 1026,1 hPa 0,0 l/m² 2 min 220 W/m² 6,4 km/h (2 Bft) 97,87 %
03.03.2026 09:04 7,6 °C 11,7 °C 3,3 °C 87 % 1026,1 hPa 0,0 l/m² 2 min 228 W/m² 6,4 km/h (2 Bft) 96,08 %
03.03.2026 09:06 7,7 °C 11,1 °C 3,3 °C 87 % 1026,2 hPa 0,0 l/m² 2 min 188 W/m² 16,1 km/h (3 Bft) 97,96 %
03.03.2026 09:08 7,8 °C 11,7 °C 3,9 °C 87 % 1026,2 hPa 0,0 l/m² 2 min 148 W/m² 9,7 km/h (2 Bft) 97,14 %
03.03.2026 09:10 7,9 °C 11,1 °C 3,9 °C 86 % 1026,2 hPa 0,0 l/m² 2 min 184 W/m² 16,1 km/h (3 Bft) 97,87 %
03.03.2026 09:12 8,1 °C 10,6 °C 3,9 °C 86 % 1026,2 hPa 0,0 l/m² 2 min 191 W/m² 12,9 km/h (3 Bft) 96,36 %
03.03.2026 09:14 8,2 °C 10,6 °C 3,9 °C 86 % 1026,2 hPa 0,0 l/m² 2 min 214 W/m² 6,4 km/h (2 Bft) 95,92 %
03.03.2026 09:16 8,2 °C 10,6 °C 3,9 °C 85 % 1026,2 hPa 0,0 l/m² 2 min 154 W/m² 12,9 km/h (3 Bft) 97,87 %
03.03.2026 09:18 8,3 °C 10,6 °C 3,9 °C 85 % 1026,2 hPa 0,0 l/m² 2 min 203 W/m² 9,7 km/h (2 Bft) 100,00 %
03.03.2026 09:20 8,4 °C 11,1 °C 3,9 °C 84 % 1026,3 hPa 0,0 l/m² 2 min 185 W/m² 9,7 km/h (2 Bft) 93,48 %
03.03.2026 09:22 8,6 °C 11,7 °C 4,4 °C 84 % 1026,2 hPa 0,0 l/m² 0 min 144 W/m² 12,9 km/h (3 Bft) 95,74 %
03.03.2026 09:24 8,7 °C 11,1 °C 4,4 °C 84 % 1026,3 hPa 0,0 l/m² 0 min 142 W/m² 9,7 km/h (2 Bft) 97,87 %
03.03.2026 09:26 8,8 °C 10,6 °C 4,4 °C 84 % 1026,3 hPa 0,0 l/m² 0 min 147 W/m² 6,4 km/h (2 Bft) 98,18 %
03.03.2026 09:28 8,9 °C 10,6 °C 4,4 °C 83 % 1026,2 hPa 0,0 l/m² 2 min 219 W/m² 16,1 km/h (3 Bft) 98,00 %
03.03.2026 09:30 9,0 °C 11,1 °C 4,4 °C 83 % 1026,3 hPa 0,0 l/m² 2 min 232 W/m² 12,9 km/h (3 Bft) 97,22 %
03.03.2026 09:32 9,1 °C 11,1 °C 4,4 °C 83 % 1026,3 hPa 0,0 l/m² 2 min 197 W/m² 16,1 km/h (3 Bft) 97,83 %
03.03.2026 09:34 9,2 °C 10,6 °C 4,4 °C 82 % 1026,3 hPa 0,0 l/m² 2 min 219 W/m² 19,3 km/h (3 Bft) 97,87 %
03.03.2026 09:36 9,3 °C 10,6 °C 4,4 °C 82 % 1026,3 hPa 0,0 l/m² 2 min 237 W/m² 16,1 km/h (3 Bft) 100,00 %
03.03.2026 09:38 9,4 °C 10,6 °C 5,0 °C 82 % 1026,4 hPa 0,0 l/m² 2 min 171 W/m² 16,1 km/h (3 Bft) 98,18 %
03.03.2026 09:40 9,4 °C 11,1 °C 5,0 °C 81 % 1026,3 hPa 0,0 l/m² 2 min 222 W/m² 16,1 km/h (3 Bft) 97,44 %
03.03.2026 09:42 9,6 °C 11,7 °C 5,0 °C 81 % 1026,3 hPa 0,0 l/m² 0 min 162 W/m² 16,1 km/h (3 Bft) 97,83 %
03.03.2026 09:44 9,7 °C 12,8 °C 5,0 °C 80 % 1026,3 hPa 0,0 l/m² 2 min 226 W/m² 12,9 km/h (3 Bft) 97,87 %
03.03.2026 09:46 9,7 °C 12,2 °C 5,0 °C 80 % 1026,3 hPa 0,0 l/m² 2 min 237 W/m² 12,9 km/h (3 Bft) 95,74 %
03.03.2026 09:48 9,8 °C 12,8 °C 5,0 °C 80 % 1026,4 hPa 0,0 l/m² 0 min 118 W/m² 12,9 km/h (3 Bft) 97,87 %
03.03.2026 09:50 9,9 °C 14,4 °C 5,0 °C 80 % 1026,3 hPa 0,0 l/m² 0 min 140 W/m² 6,4 km/h (2 Bft) 95,74 %
03.03.2026 09:52 10,0 °C 13,3 °C 5,0 °C 80 % 1026,3 hPa 0,0 l/m² 2 min 314 W/m² 16,1 km/h (3 Bft) 93,62 %
03.03.2026 09:54 10,1 °C 12,8 °C 5,6 °C 80 % 1026,3 hPa 0,0 l/m² 2 min 311 W/m² 9,7 km/h (2 Bft) 98,18 %
03.03.2026 09:56 10,1 °C 12,2 °C 5,6 °C 80 % 1026,4 hPa 0,0 l/m² 2 min 248 W/m² 12,9 km/h (3 Bft) 98,00 %
03.03.2026 09:58 10,2 °C 12,2 °C 5,6 °C 79 % 1026,4 hPa 0,0 l/m² 2 min 246 W/m² 12,9 km/h (3 Bft) 97,14 %
03.03.2026 10:00 10,3 °C 13,3 °C 5,6 °C 79 % 1026,4 hPa 0,0 l/m² 2 min 253 W/m² 6,4 km/h (2 Bft) 97,87 %
03.03.2026 10:02 10,3 °C 14,4 °C 5,6 °C 79 % 1026,5 hPa 0,0 l/m² 2 min 224 W/m² 6,4 km/h (2 Bft) 95,74 %
03.03.2026 10:04 10,4 °C 15,0 °C 6,1 °C 79 % 1026,4 hPa 0,0 l/m² 2 min 282 W/m² 12,9 km/h (3 Bft) 98,18 %
03.03.2026 10:06 10,5 °C 14,4 °C 6,1 °C 79 % 1026,5 hPa 0,0 l/m² 2 min 331 W/m² 9,7 km/h (2 Bft) 97,87 %
03.03.2026 10:08 10,6 °C 13,9 °C 6,1 °C 79 % 1026,4 hPa 0,0 l/m² 2 min 280 W/m² 12,9 km/h (3 Bft) 96,08 %
03.03.2026 10:10 10,7 °C 14,4 °C 6,7 °C 79 % 1026,4 hPa 0,0 l/m² 2 min 201 W/m² 12,9 km/h (3 Bft) 94,44 %
03.03.2026 10:12 10,8 °C 15,6 °C 6,7 °C 79 % 1026,4 hPa 0,0 l/m² 0 min 147 W/m² 12,9 km/h (3 Bft) 95,74 %
03.03.2026 10:14 10,8 °C 15,6 °C 6,7 °C 79 % 1026,5 hPa 0,0 l/m² 0 min 151 W/m² 12,9 km/h (3 Bft) 93,62 %
03.03.2026 10:16 10,9 °C 15,6 °C 6,7 °C 78 % 1026,5 hPa 0,0 l/m² 2 min 223 W/m² 9,7 km/h (2 Bft) 93,62 %
03.03.2026 10:18 11,1 °C 16,1 °C 7,2 °C 78 % 1026,5 hPa 0,0 l/m² 2 min 342 W/m² 6,4 km/h (2 Bft) 94,44 %
03.03.2026 10:20 11,2 °C 16,7 °C 7,2 °C 78 % 1026,5 hPa 0,0 l/m² 0 min 201 W/m² 6,4 km/h (2 Bft) 97,37 %
03.03.2026 10:22 11,3 °C 16,7 °C 7,2 °C 78 % 1026,5 hPa 0,0 l/m² 0 min 73 W/m² 9,7 km/h (2 Bft) 93,75 %
03.03.2026 10:24 11,4 °C 18,3 °C 7,8 °C 78 % 1026,6 hPa 0,0 l/m² 0 min 152 W/m² 6,4 km/h (2 Bft) 95,74 %
03.03.2026 10:26 11,5 °C 19,4 °C 7,8 °C 78 % 1026,6 hPa 0,0 l/m² 2 min 217 W/m² 6,4 km/h (2 Bft) 95,74 %
03.03.2026 10:28 11,6 °C 20,0 °C 7,8 °C 77 % 1026,7 hPa 0,0 l/m² 2 min 286 W/m² 6,4 km/h (2 Bft) 95,74 %
03.03.2026 10:30 11,8 °C 20,6 °C 7,8 °C 77 % 1026,7 hPa 0,0 l/m² 2 min 418 W/m² 12,9 km/h (3 Bft) 92,45 %
03.03.2026 10:32 11,9 °C 20,6 °C 8,3 °C 77 % 1026,7 hPa 0,0 l/m² 2 min 419 W/m² 6,4 km/h (2 Bft) 91,49 %
03.03.2026 10:34 12,0 °C 20,6 °C 8,3 °C 77 % 1026,7 hPa 0,0 l/m² 2 min 427 W/m² 12,9 km/h (3 Bft) 96,00 %
03.03.2026 10:36 12,1 °C 20,0 °C 8,3 °C 76 % 1026,7 hPa 0,0 l/m² 2 min 432 W/m² 9,7 km/h (2 Bft) 93,48 %
03.03.2026 10:38 12,2 °C 20,0 °C 8,3 °C 76 % 1026,7 hPa 0,0 l/m² 2 min 421 W/m² 12,9 km/h (3 Bft) 89,47 %
03.03.2026 10:40 12,4 °C 20,0 °C 8,9 °C 75 % 1026,7 hPa 0,0 l/m² 2 min 334 W/m² 12,9 km/h (3 Bft) 93,62 %
03.03.2026 10:42 12,5 °C 20,6 °C 8,9 °C 75 % 1026,7 hPa 0,0 l/m² 2 min 380 W/m² 12,9 km/h (3 Bft) 95,65 %
03.03.2026 10:44 12,6 °C 20,6 °C 8,9 °C 75 % 1026,7 hPa 0,0 l/m² 2 min 445 W/m² 6,4 km/h (2 Bft) 97,87 %
03.03.2026 10:46 12,7 °C 20,6 °C 8,9 °C 75 % 1026,7 hPa 0,0 l/m² 2 min 450 W/m² 12,9 km/h (3 Bft) 95,74 %
03.03.2026 10:48 12,9 °C 21,7 °C 9,4 °C 74 % 1026,7 hPa 0,0 l/m² 2 min 381 W/m² 6,4 km/h (2 Bft) 95,74 %
03.03.2026 10:50 13,1 °C 22,2 °C 9,4 °C 74 % 1026,7 hPa 0,0 l/m² 2 min 416 W/m² 12,9 km/h (3 Bft) 93,62 %
03.03.2026 10:52 13,2 °C 22,2 °C 9,4 °C 74 % 1026,7 hPa 0,0 l/m² 2 min 459 W/m² 9,7 km/h (2 Bft) 95,65 %
03.03.2026 10:54 13,3 °C 22,8 °C 10,0 °C 74 % 1026,7 hPa 0,0 l/m² 2 min 467 W/m² 9,7 km/h (2 Bft) 91,67 %
03.03.2026 10:56 13,4 °C 22,2 °C 10,0 °C 73 % 1026,7 hPa 0,0 l/m² 2 min 472 W/m² 12,9 km/h (3 Bft) 93,62 %
03.03.2026 10:58 13,6 °C 22,8 °C 11,1 °C 73 % 1026,7 hPa 0,0 l/m² 2 min 475 W/m² 6,4 km/h (2 Bft) 95,74 %
03.03.2026 11:00 13,6 °C 23,3 °C 12,2 °C 73 % 1026,7 hPa 0,0 l/m² 2 min 475 W/m² 6,4 km/h (2 Bft) 95,74 %
03.03.2026 11:02 13,8 °C 23,9 °C 13,3 °C 73 % 1026,7 hPa 0,0 l/m² 2 min 480 W/m² 6,4 km/h (2 Bft) 95,65 %
03.03.2026 11:04 14,0 °C 24,4 °C 13,9 °C 72 % 1026,7 hPa 0,0 l/m² 2 min 482 W/m² 12,9 km/h (3 Bft) 95,56 %
03.03.2026 11:06 14,2 °C 25,0 °C 15,0 °C 72 % 1026,6 hPa 0,0 l/m² 2 min 486 W/m² 12,9 km/h (3 Bft) 93,22 %
03.03.2026 11:08 14,3 °C 25,0 °C 15,6 °C 72 % 1026,7 hPa 0,0 l/m² 2 min 490 W/m² 6,4 km/h (2 Bft) 91,43 %
03.03.2026 11:10 14,4 °C 25,6 °C 16,1 °C 71 % 1026,7 hPa 0,0 l/m² 2 min 492 W/m² 12,9 km/h (3 Bft) 95,74 %
03.03.2026 11:12 14,6 °C 25,6 °C 16,7 °C 71 % 1026,7 hPa 0,0 l/m² 2 min 495 W/m² 6,4 km/h (2 Bft) 95,74 %
03.03.2026 11:14 14,7 °C 25,0 °C 16,7 °C 70 % 1026,7 hPa 0,0 l/m² 2 min 498 W/m² 12,9 km/h (3 Bft) 95,74 %
03.03.2026 11:16 14,8 °C 25,0 °C 16,7 °C 70 % 1026,7 hPa 0,0 l/m² 2 min 502 W/m² 12,9 km/h (3 Bft) 95,65 %
03.03.2026 11:18 14,9 °C 24,4 °C 17,2 °C 69 % 1026,7 hPa 0,0 l/m² 2 min 504 W/m² 12,9 km/h (3 Bft) 97,87 %
03.03.2026 11:20 15,1 °C 23,9 °C 16,7 °C 69 % 1026,7 hPa 0,0 l/m² 2 min 506 W/m² 9,7 km/h (2 Bft) 95,74 %
03.03.2026 11:22 15,1 °C 23,9 °C 16,7 °C 69 % 1026,7 hPa 0,0 l/m² 2 min 510 W/m² 9,7 km/h (2 Bft) 97,87 %
03.03.2026 11:24 15,2 °C 24,4 °C 17,2 °C 69 % 1026,6 hPa 0,0 l/m² 2 min 512 W/m² 12,9 km/h (3 Bft) 93,88 %
03.03.2026 11:26 15,2 °C 25,0 °C 17,8 °C 69 % 1026,7 hPa 0,0 l/m² 2 min 515 W/m² 6,4 km/h (2 Bft) 97,87 %
03.03.2026 11:28 15,3 °C 26,1 °C 18,3 °C 69 % 1026,7 hPa 0,0 l/m² 2 min 519 W/m² 6,4 km/h (2 Bft) 95,65 %
03.03.2026 11:30 15,5 °C 26,7 °C 18,9 °C 69 % 1026,6 hPa 0,0 l/m² 2 min 520 W/m² 9,7 km/h (2 Bft) 97,87 %
03.03.2026 11:32 15,7 °C 26,1 °C 18,3 °C 68 % 1026,7 hPa 0,0 l/m² 2 min 521 W/m² 6,4 km/h (2 Bft) 97,87 %
03.03.2026 11:34 15,8 °C 26,1 °C 18,9 °C 67 % 1026,7 hPa 0,0 l/m² 2 min 524 W/m² 9,7 km/h (2 Bft) 95,74 %
03.03.2026 11:36 15,9 °C 26,7 °C 18,9 °C 67 % 1026,7 hPa 0,0 l/m² 2 min 526 W/m² 6,4 km/h (2 Bft) 97,87 %
03.03.2026 11:38 16,1 °C 26,7 °C 18,3 °C 67 % 1026,7 hPa 0,0 l/m² 2 min 529 W/m² 12,9 km/h (3 Bft) 97,87 %
03.03.2026 11:40 16,2 °C 27,2 °C 18,3 °C 67 % 1026,7 hPa 0,0 l/m² 2 min 531 W/m² 6,4 km/h (2 Bft) 97,83 %
03.03.2026 11:42 16,3 °C 27,8 °C 18,9 °C 66 % 1026,7 hPa 0,0 l/m² 2 min 533 W/m² 6,4 km/h (2 Bft) 97,87 %
03.03.2026 11:44 16,4 °C 27,8 °C 18,9 °C 66 % 1026,8 hPa 0,0 l/m² 2 min 534 W/m² 3,2 km/h (1 Bft) 97,87 %
03.03.2026 11:46 16,6 °C 27,8 °C 20,0 °C 66 % 1026,8 hPa 0,0 l/m² 2 min 536 W/m² 6,4 km/h (2 Bft) 97,87 %
03.03.2026 11:48 16,7 °C 27,2 °C 19,4 °C 65 % 1026,8 hPa 0,0 l/m² 2 min 539 W/m² 6,4 km/h (2 Bft) 98,15 %
03.03.2026 11:50 16,7 °C 27,2 °C 20,0 °C 65 % 1026,9 hPa 0,0 l/m² 2 min 543 W/m² 6,4 km/h (2 Bft) 95,74 %
03.03.2026 11:52 16,8 °C 27,2 °C 20,0 °C 65 % 1026,9 hPa 0,0 l/m² 2 min 549 W/m² 3,2 km/h (1 Bft) 97,87 %
03.03.2026 11:54 17,0 °C 27,8 °C 20,0 °C 65 % 1026,8 hPa 0,0 l/m² 2 min 555 W/m² 3,2 km/h (1 Bft) 97,62 %
03.03.2026 11:56 17,1 °C 28,3 °C 20,0 °C 65 % 1026,9 hPa 0,0 l/m² 2 min 564 W/m² 3,2 km/h (1 Bft) 97,87 %
03.03.2026 11:58 17,3 °C 28,9 °C 20,0 °C 65 % 1026,9 hPa 0,0 l/m² 2 min 571 W/m² 6,4 km/h (2 Bft) 96,00 %
03.03.2026 12:00 17,3 °C 27,2 °C 20,0 °C 64 % 1026,9 hPa 0,0 l/m² 2 min 563 W/m² 6,4 km/h (2 Bft) 97,83 %
03.03.2026 12:02 17,4 °C 27,2 °C 18,9 °C 64 % 1026,9 hPa 0,0 l/m² 2 min 571 W/m² 3,2 km/h (1 Bft) 97,87 %
03.03.2026 12:04 17,5 °C 26,7 °C 18,3 °C 63 % 1026,8 hPa 0,0 l/m² 2 min 538 W/m² 6,4 km/h (2 Bft) 98,00 %
03.03.2026 12:08 17,6 °C 25,0 °C 17,8 °C 63 % 1026,8 hPa 0,0 l/m² 4 min 515 W/m² 9,7 km/h (2 Bft) 95,18 %
03.03.2026 12:10 17,6 °C 23,3 °C 17,2 °C 63 % 1026,8 hPa 0,0 l/m² 2 min 475 W/m² 9,7 km/h (2 Bft) 95,74 %
03.03.2026 12:12 17,5 °C 22,2 °C 16,7 °C 62 % 1026,8 hPa 0,0 l/m² 2 min 493 W/m² 9,7 km/h (2 Bft) 95,74 %
03.03.2026 12:14 17,4 °C 20,6 °C 15,6 °C 62 % 1026,8 hPa 0,0 l/m² 2 min 519 W/m² 6,4 km/h (2 Bft) 95,65 %
03.03.2026 12:16 17,3 °C 20,0 °C 14,4 °C 62 % 1026,8 hPa 0,0 l/m² 2 min 497 W/m² 6,4 km/h (2 Bft) 95,74 %
03.03.2026 12:18 17,3 °C 20,0 °C 13,9 °C 63 % 1026,7 hPa 0,0 l/m² 2 min 483 W/m² 6,4 km/h (2 Bft) 96,08 %
03.03.2026 12:20 17,3 °C 20,6 °C 13,9 °C 63 % 1026,7 hPa 0,0 l/m² 2 min 511 W/m² 6,4 km/h (2 Bft) 95,74 %
03.03.2026 12:22 17,2 °C 20,0 °C 13,9 °C 63 % 1026,7 hPa 0,0 l/m² 2 min 511 W/m² 3,2 km/h (1 Bft) 95,74 %
03.03.2026 12:24 17,2 °C 21,1 °C 13,9 °C 63 % 1026,6 hPa 0,0 l/m² 2 min 528 W/m² 6,4 km/h (2 Bft) 95,65 %
03.03.2026 12:26 17,2 °C 22,2 °C 14,4 °C 63 % 1026,7 hPa 0,0 l/m² 2 min 515 W/m² 6,4 km/h (2 Bft) 93,62 %
03.03.2026 12:28 17,2 °C 22,8 °C 14,4 °C 63 % 1026,6 hPa 0,0 l/m² 2 min 519 W/m² 6,4 km/h (2 Bft) 95,74 %
03.03.2026 12:30 17,2 °C 23,3 °C 15,0 °C 63 % 1026,7 hPa 0,0 l/m² 2 min 504 W/m² 3,2 km/h (1 Bft) 95,74 %
03.03.2026 12:32 17,3 °C 23,9 °C 15,0 °C 63 % 1026,7 hPa 0,0 l/m² 2 min 495 W/m² 9,7 km/h (2 Bft) 95,83 %
03.03.2026 12:34 17,4 °C 24,4 °C 15,0 °C 63 % 1026,8 hPa 0,0 l/m² 2 min 478 W/m² 6,4 km/h (2 Bft) 95,74 %
03.03.2026 12:36 17,5 °C 25,0 °C 15,0 °C 62 % 1026,7 hPa 0,0 l/m² 2 min 483 W/m² 6,4 km/h (2 Bft) 95,65 %
03.03.2026 12:38 17,6 °C 25,0 °C 15,0 °C 62 % 1026,6 hPa 0,0 l/m² 2 min 479 W/m² 12,9 km/h (3 Bft) 95,74 %
03.03.2026 12:40 17,6 °C 25,6 °C 14,4 °C 62 % 1026,6 hPa 0,0 l/m² 2 min 497 W/m² 6,4 km/h (2 Bft) 95,74 %
03.03.2026 12:42 17,7 °C 25,6 °C 13,9 °C 62 % 1026,6 hPa 0,0 l/m² 2 min 494 W/m² 16,1 km/h (3 Bft) 97,87 %
03.03.2026 12:44 17,7 °C 25,0 °C 13,3 °C 62 % 1026,6 hPa 0,0 l/m² 2 min 495 W/m² 12,9 km/h (3 Bft) 97,87 %
03.03.2026 12:46 17,7 °C 26,7 °C 13,3 °C 62 % 1026,5 hPa 0,0 l/m² 2 min 536 W/m² 9,7 km/h (2 Bft) 97,87 %
03.03.2026 12:48 17,7 °C 26,1 °C 13,3 °C 61 % 1026,6 hPa 0,0 l/m² 2 min 528 W/m² 12,9 km/h (3 Bft) 97,83 %
03.03.2026 12:50 17,7 °C 27,2 °C 13,3 °C 62 % 1026,6 hPa 0,0 l/m² 2 min 541 W/m² 6,4 km/h (2 Bft) 97,87 %
03.03.2026 12:52 17,8 °C 27,8 °C 12,8 °C 61 % 1026,7 hPa 0,0 l/m² 2 min 560 W/m² 6,4 km/h (2 Bft) 97,87 %
03.03.2026 12:54 17,8 °C 26,7 °C 12,8 °C 61 % 1026,6 hPa 0,0 l/m² 2 min 543 W/m² 9,7 km/h (2 Bft) 97,87 %
03.03.2026 12:56 17,9 °C 26,7 °C 12,8 °C 61 % 1026,6 hPa 0,0 l/m² 2 min 547 W/m² 12,9 km/h (3 Bft) 95,74 %
03.03.2026 12:58 17,9 °C 27,2 °C 12,8 °C 60 % 1026,6 hPa 0,0 l/m² 2 min 539 W/m² 16,1 km/h (3 Bft) 97,87 %
03.03.2026 13:00 17,9 °C 27,2 °C 12,8 °C 60 % 1026,6 hPa 0,0 l/m² 2 min 546 W/m² 12,9 km/h (3 Bft) 97,83 %
03.03.2026 13:02 18,0 °C 27,2 °C 12,8 °C 61 % 1026,6 hPa 0,0 l/m² 2 min 552 W/m² 6,4 km/h (2 Bft) 97,87 %
03.03.2026 13:04 18,1 °C 26,7 °C 12,8 °C 61 % 1026,5 hPa 0,0 l/m² 2 min 553 W/m² 12,9 km/h (3 Bft) 97,92 %
03.03.2026 13:06 18,1 °C 26,7 °C 12,8 °C 61 % 1026,5 hPa 0,0 l/m² 2 min 550 W/m² 9,7 km/h (2 Bft) 97,87 %
03.03.2026 13:08 18,2 °C 27,8 °C 12,8 °C 61 % 1026,5 hPa 0,0 l/m² 2 min 546 W/m² 6,4 km/h (2 Bft) 97,87 %
03.03.2026 13:10 18,2 °C 27,2 °C 12,8 °C 61 % 1026,5 hPa 0,0 l/m² 2 min 555 W/m² 9,7 km/h (2 Bft) 97,87 %
03.03.2026 13:12 18,3 °C 27,2 °C 12,8 °C 61 % 1026,5 hPa 0,0 l/m² 2 min 542 W/m² 12,9 km/h (3 Bft) 97,83 %
03.03.2026 13:14 18,3 °C 27,2 °C 12,8 °C 61 % 1026,5 hPa 0,0 l/m² 2 min 542 W/m² 9,7 km/h (2 Bft) 97,87 %
03.03.2026 13:16 18,3 °C 27,2 °C 12,8 °C 61 % 1026,4 hPa 0,0 l/m² 2 min 546 W/m² 9,7 km/h (2 Bft) 95,74 %
03.03.2026 13:18 18,4 °C 28,3 °C 12,8 °C 62 % 1026,5 hPa 0,0 l/m² 2 min 546 W/m² 12,9 km/h (3 Bft) 97,87 %
03.03.2026 13:20 18,5 °C 27,8 °C 12,8 °C 62 % 1026,5 hPa 0,0 l/m² 2 min 543 W/m² 6,4 km/h (2 Bft) 97,87 %
03.03.2026 13:22 18,6 °C 28,3 °C 12,8 °C 61 % 1026,5 hPa 0,0 l/m² 2 min 541 W/m² 6,4 km/h (2 Bft) 97,87 %
03.03.2026 13:24 18,6 °C 28,9 °C 12,8 °C 61 % 1026,5 hPa 0,0 l/m² 2 min 538 W/m² 6,4 km/h (2 Bft) 95,65 %
03.03.2026 13:26 18,7 °C 29,4 °C 12,8 °C 60 % 1026,5 hPa 0,0 l/m² 2 min 534 W/m² 6,4 km/h (2 Bft) 97,87 %
03.03.2026 13:28 18,8 °C 28,3 °C 12,8 °C 60 % 1026,5 hPa 0,0 l/m² 2 min 503 W/m² 6,4 km/h (2 Bft) 95,74 %
03.03.2026 13:30 18,8 °C 27,8 °C 12,8 °C 59 % 1026,5 hPa 0,0 l/m² 2 min 522 W/m² 6,4 km/h (2 Bft) 97,87 %
03.03.2026 13:32 18,8 °C 27,2 °C 12,8 °C 60 % 1026,5 hPa 0,0 l/m² 2 min 532 W/m² 9,7 km/h (2 Bft) 97,87 %
03.03.2026 13:34 18,8 °C 27,2 °C 12,8 °C 59 % 1026,4 hPa 0,0 l/m² 2 min 540 W/m² 6,4 km/h (2 Bft) 97,87 %
03.03.2026 13:36 18,8 °C 28,3 °C 12,8 °C 60 % 1026,4 hPa 0,0 l/m² 2 min 536 W/m² 6,4 km/h (2 Bft) 97,83 %
03.03.2026 13:38 18,9 °C 28,9 °C 12,8 °C 61 % 1026,4 hPa 0,0 l/m² 2 min 535 W/m² 6,4 km/h (2 Bft) 97,87 %
03.03.2026 13:40 19,1 °C 29,4 °C 12,8 °C 60 % 1026,4 hPa 0,0 l/m² 2 min 533 W/m² 3,2 km/h (1 Bft) 93,62 %
03.03.2026 13:42 19,2 °C 27,8 °C 12,8 °C 59 % 1026,4 hPa 0,0 l/m² 2 min 534 W/m² 9,7 km/h (2 Bft) 97,87 %
03.03.2026 13:44 19,2 °C 27,2 °C 13,3 °C 58 % 1026,4 hPa 0,0 l/m² 2 min 532 W/m² 16,1 km/h (3 Bft) 95,74 %
03.03.2026 13:46 19,3 °C 26,7 °C 13,3 °C 58 % 1026,3 hPa 0,0 l/m² 2 min 527 W/m² 12,9 km/h (3 Bft) 97,83 %
03.03.2026 13:48 19,3 °C 26,7 °C 13,3 °C 58 % 1026,4 hPa 0,0 l/m² 2 min 522 W/m² 6,4 km/h (2 Bft) 97,87 %
03.03.2026 13:50 19,3 °C 26,1 °C 13,3 °C 58 % 1026,4 hPa 0,0 l/m² 2 min 525 W/m² 9,7 km/h (2 Bft) 100,00 %
03.03.2026 13:52 19,3 °C 25,0 °C 13,3 °C 58 % 1026,3 hPa 0,0 l/m² 2 min 521 W/m² 12,9 km/h (3 Bft) 97,87 %
03.03.2026 13:54 19,3 °C 25,6 °C 13,3 °C 58 % 1026,3 hPa 0,0 l/m² 2 min 518 W/m² 9,7 km/h (2 Bft) 100,00 %
03.03.2026 13:56 19,3 °C 26,7 °C 13,3 °C 58 % 1026,3 hPa 0,0 l/m² 2 min 520 W/m² 6,4 km/h (2 Bft) 97,87 %
03.03.2026 13:58 19,2 °C 26,7 °C 12,8 °C 58 % 1026,3 hPa 0,0 l/m² 2 min 522 W/m² 9,7 km/h (2 Bft) 97,83 %
03.03.2026 14:00 19,2 °C 26,7 °C 12,8 °C 58 % 1026,2 hPa 0,0 l/m² 2 min 519 W/m² 9,7 km/h (2 Bft) 100,00 %
03.03.2026 14:02 19,2 °C 26,1 °C 12,8 °C 57 % 1026,3 hPa 0,0 l/m² 2 min 515 W/m² 6,4 km/h (2 Bft) 97,87 %
03.03.2026 14:04 19,2 °C 26,7 °C 12,8 °C 58 % 1026,3 hPa 0,0 l/m² 2 min 516 W/m² 9,7 km/h (2 Bft) 100,00 %
03.03.2026 14:06 19,2 °C 26,1 °C 12,8 °C 58 % 1026,2 hPa 0,0 l/m² 2 min 513 W/m² 3,2 km/h (1 Bft) 100,00 %
03.03.2026 14:08 19,2 °C 26,1 °C 12,8 °C 58 % 1026,2 hPa 0,0 l/m² 2 min 496 W/m² 3,2 km/h (1 Bft) 97,87 %
03.03.2026 14:10 19,2 °C 26,1 °C 12,8 °C 59 % 1026,2 hPa 0,0 l/m² 2 min 490 W/m² 6,4 km/h (2 Bft) 97,14 %
03.03.2026 14:12 19,3 °C 26,7 °C 12,8 °C 59 % 1026,2 hPa 0,0 l/m² 2 min 490 W/m² 3,2 km/h (1 Bft) 97,87 %
03.03.2026 14:14 19,3 °C 26,7 °C 13,3 °C 58 % 1026,2 hPa 0,0 l/m² 2 min 484 W/m² 9,7 km/h (2 Bft) 97,83 %
03.03.2026 14:16 19,3 °C 25,6 °C 13,3 °C 58 % 1026,2 hPa 0,0 l/m² 2 min 484 W/m² 16,1 km/h (3 Bft) 97,87 %
03.03.2026 14:18 19,3 °C 25,0 °C 13,3 °C 58 % 1026,3 hPa 0,0 l/m² 2 min 485 W/m² 9,7 km/h (2 Bft) 97,87 %
03.03.2026 14:20 19,2 °C 25,0 °C 13,3 °C 58 % 1026,3 hPa 0,0 l/m² 2 min 476 W/m² 6,4 km/h (2 Bft) 97,87 %
03.03.2026 14:22 19,1 °C 25,0 °C 13,3 °C 58 % 1026,3 hPa 0,0 l/m² 2 min 476 W/m² 9,7 km/h (2 Bft) 97,87 %
03.03.2026 14:24 19,1 °C 25,0 °C 12,8 °C 59 % 1026,3 hPa 0,0 l/m² 2 min 480 W/m² 6,4 km/h (2 Bft) 95,74 %
03.03.2026 14:26 19,0 °C 24,4 °C 12,8 °C 59 % 1026,2 hPa 0,0 l/m² 2 min 481 W/m² 6,4 km/h (2 Bft) 95,65 %
03.03.2026 14:28 19,0 °C 25,0 °C 12,8 °C 59 % 1026,3 hPa 0,0 l/m² 2 min 472 W/m² 6,4 km/h (2 Bft) 97,87 %
03.03.2026 14:30 19,0 °C 24,4 °C 13,3 °C 59 % 1026,3 hPa 0,0 l/m² 2 min 471 W/m² 6,4 km/h (2 Bft) 97,87 %
03.03.2026 14:32 18,9 °C 24,4 °C 12,8 °C 59 % 1026,2 hPa 0,0 l/m² 2 min 470 W/m² 6,4 km/h (2 Bft) 97,87 %
03.03.2026 14:34 18,9 °C 24,4 °C 13,3 °C 59 % 1026,3 hPa 0,0 l/m² 2 min 469 W/m² 6,4 km/h (2 Bft) 97,87 %
03.03.2026 14:36 18,9 °C 25,0 °C 12,8 °C 59 % 1026,2 hPa 0,0 l/m² 2 min 466 W/m² 6,4 km/h (2 Bft) 97,87 %
03.03.2026 14:38 19,0 °C 25,0 °C 12,8 °C 58 % 1026,2 hPa 0,0 l/m² 2 min 464 W/m² 6,4 km/h (2 Bft) 95,65 %
03.03.2026 14:40 19,1 °C 25,6 °C 13,3 °C 58 % 1026,2 hPa 0,0 l/m² 2 min 465 W/m² 6,4 km/h (2 Bft) 97,87 %
03.03.2026 14:42 19,1 °C 25,6 °C 13,3 °C 59 % 1026,2 hPa 0,0 l/m² 2 min 466 W/m² 9,7 km/h (2 Bft) 97,87 %
03.03.2026 14:44 19,1 °C 25,6 °C 13,3 °C 58 % 1026,2 hPa 0,0 l/m² 2 min 459 W/m² 9,7 km/h (2 Bft) 100,00 %
03.03.2026 14:46 19,2 °C 26,1 °C 12,8 °C 58 % 1026,2 hPa 0,0 l/m² 2 min 456 W/m² 6,4 km/h (2 Bft) 100,00 %
03.03.2026 14:48 19,2 °C 26,1 °C 13,3 °C 58 % 1026,2 hPa 0,0 l/m² 2 min 453 W/m² 3,2 km/h (1 Bft) 97,83 %
03.03.2026 14:50 19,2 °C 25,6 °C 12,8 °C 58 % 1026,2 hPa 0,0 l/m² 2 min 451 W/m² 12,9 km/h (3 Bft) 100,00 %
03.03.2026 14:52 19,2 °C 26,1 °C 13,3 °C 58 % 1026,2 hPa 0,0 l/m² 2 min 452 W/m² 6,4 km/h (2 Bft) 100,00 %
03.03.2026 14:54 19,3 °C 26,1 °C 13,3 °C 59 % 1026,2 hPa 0,0 l/m² 2 min 452 W/m² 9,7 km/h (2 Bft) 100,00 %
03.03.2026 14:56 19,5 °C 26,1 °C 13,3 °C 59 % 1026,2 hPa 0,0 l/m² 2 min 448 W/m² 6,4 km/h (2 Bft) 100,00 %
03.03.2026 14:58 19,6 °C 26,1 °C 13,9 °C 58 % 1026,3 hPa 0,0 l/m² 2 min 444 W/m² 12,9 km/h (3 Bft) 100,00 %
03.03.2026 15:00 19,6 °C 24,4 °C 13,3 °C 57 % 1026,3 hPa 0,0 l/m² 2 min 437 W/m² 6,4 km/h (2 Bft) 100,00 %
03.03.2026 15:02 19,6 °C 25,6 °C 13,3 °C 58 % 1026,2 hPa 0,0 l/m² 2 min 431 W/m² 3,2 km/h (1 Bft) 100,00 %
03.03.2026 15:04 19,7 °C 25,6 °C 13,9 °C 58 % 1026,2 hPa 0,0 l/m² 2 min 425 W/m² 9,7 km/h (2 Bft) 100,00 %
03.03.2026 15:06 19,7 °C 25,6 °C 13,9 °C 58 % 1026,2 hPa 0,0 l/m² 2 min 422 W/m² 6,4 km/h (2 Bft) 100,00 %
03.03.2026 15:08 19,8 °C 26,1 °C 13,9 °C 58 % 1026,1 hPa 0,0 l/m² 2 min 420 W/m² 6,4 km/h (2 Bft) 100,00 %
03.03.2026 15:10 19,8 °C 25,6 °C 13,9 °C 56 % 1026,1 hPa 0,0 l/m² 2 min 417 W/m² 6,4 km/h (2 Bft) 100,00 %
03.03.2026 15:12 19,8 °C 25,6 °C 13,9 °C 57 % 1026,1 hPa 0,0 l/m² 2 min 413 W/m² 6,4 km/h (2 Bft) 100,00 %
03.03.2026 15:14 19,7 °C 24,4 °C 13,9 °C 55 % 1026,1 hPa 0,0 l/m² 2 min 410 W/m² 9,7 km/h (2 Bft) 100,00 %
03.03.2026 15:16 19,6 °C 25,0 °C 13,9 °C 55 % 1026,1 hPa 0,0 l/m² 2 min 406 W/m² 6,4 km/h (2 Bft) 100,00 %
03.03.2026 15:18 19,6 °C 25,0 °C 13,9 °C 55 % 1026,1 hPa 0,0 l/m² 2 min 401 W/m² 3,2 km/h (1 Bft) 100,00 %
03.03.2026 15:20 19,7 °C 25,6 °C 13,9 °C 56 % 1026,1 hPa 0,0 l/m² 2 min 398 W/m² 3,2 km/h (1 Bft) 100,00 %
03.03.2026 15:22 19,7 °C 25,0 °C 13,9 °C 56 % 1026,1 hPa 0,0 l/m² 2 min 392 W/m² 12,9 km/h (3 Bft) 97,87 %
03.03.2026 15:24 19,6 °C 24,4 °C 13,9 °C 57 % 1026,1 hPa 0,0 l/m² 2 min 387 W/m² 6,4 km/h (2 Bft) 100,00 %
03.03.2026 15:26 19,7 °C 24,4 °C 13,9 °C 56 % 1026,1 hPa 0,0 l/m² 2 min 384 W/m² 12,9 km/h (3 Bft) 100,00 %
03.03.2026 15:28 19,7 °C 25,0 °C 13,9 °C 55 % 1026,1 hPa 0,0 l/m² 2 min 381 W/m² 6,4 km/h (2 Bft) 100,00 %
03.03.2026 15:30 19,7 °C 24,4 °C 13,3 °C 55 % 1026,1 hPa 0,0 l/m² 2 min 376 W/m² 6,4 km/h (2 Bft) 100,00 %
03.03.2026 15:32 19,7 °C 24,4 °C 13,3 °C 56 % 1026,1 hPa 0,0 l/m² 2 min 371 W/m² 6,4 km/h (2 Bft) 97,87 %
03.03.2026 15:34 19,8 °C 24,4 °C 13,3 °C 55 % 1026,0 hPa 0,0 l/m² 2 min 367 W/m² 6,4 km/h (2 Bft) 100,00 %
03.03.2026 15:36 19,7 °C 23,9 °C 13,3 °C 55 % 1026,0 hPa 0,0 l/m² 2 min 362 W/m² 6,4 km/h (2 Bft) 100,00 %
03.03.2026 15:38 19,7 °C 23,9 °C 13,3 °C 55 % 1026,0 hPa 0,0 l/m² 2 min 357 W/m² 6,4 km/h (2 Bft) 97,87 %
03.03.2026 15:40 19,8 °C 24,4 °C 12,8 °C 56 % 1026,0 hPa 0,0 l/m² 2 min 351 W/m² 6,4 km/h (2 Bft) 97,87 %
03.03.2026 15:42 19,8 °C 24,4 °C 12,8 °C 55 % 1026,0 hPa 0,0 l/m² 2 min 347 W/m² 3,2 km/h (1 Bft) 93,62 %
03.03.2026 15:44 19,9 °C 24,4 °C 12,8 °C 55 % 1026,0 hPa 0,0 l/m² 2 min 342 W/m² 9,7 km/h (2 Bft) 95,74 %
03.03.2026 15:46 19,9 °C 23,9 °C 12,8 °C 55 % 1026,0 hPa 0,0 l/m² 2 min 338 W/m² 3,2 km/h (1 Bft) 93,48 %
03.03.2026 15:48 19,9 °C 23,9 °C 12,8 °C 55 % 1026,0 hPa 0,0 l/m² 2 min 332 W/m² 6,4 km/h (2 Bft) 93,62 %
03.03.2026 15:50 19,8 °C 23,3 °C 12,8 °C 55 % 1025,9 hPa 0,0 l/m² 2 min 329 W/m² 3,2 km/h (1 Bft) 95,74 %
03.03.2026 15:52 19,7 °C 23,3 °C 12,8 °C 55 % 1026,0 hPa 0,0 l/m² 2 min 323 W/m² 6,4 km/h (2 Bft) 95,74 %
03.03.2026 15:54 19,8 °C 23,9 °C 12,8 °C 55 % 1025,9 hPa 0,0 l/m² 2 min 319 W/m² 6,4 km/h (2 Bft) 95,74 %
03.03.2026 15:56 19,7 °C 23,3 °C 12,8 °C 55 % 1025,9 hPa 0,0 l/m² 2 min 315 W/m² 6,4 km/h (2 Bft) 95,74 %
03.03.2026 15:58 19,7 °C 23,3 °C 12,8 °C 55 % 1025,9 hPa 0,0 l/m² 2 min 311 W/m² 12,9 km/h (3 Bft) 95,65 %
03.03.2026 16:00 19,7 °C 23,3 °C 12,8 °C 56 % 1025,9 hPa 0,0 l/m² 2 min 306 W/m² 9,7 km/h (2 Bft) 95,74 %
03.03.2026 16:02 19,7 °C 23,3 °C 12,8 °C 56 % 1025,9 hPa 0,0 l/m² 2 min 299 W/m² 6,4 km/h (2 Bft) 93,62 %
03.03.2026 16:04 19,7 °C 23,3 °C 12,2 °C 56 % 1025,9 hPa 0,0 l/m² 2 min 295 W/m² 6,4 km/h (2 Bft) 93,88 %
03.03.2026 16:06 19,7 °C 22,8 °C 12,2 °C 55 % 1025,8 hPa 0,0 l/m² 2 min 290 W/m² 3,2 km/h (1 Bft) 96,55 %
03.03.2026 16:08 19,7 °C 22,8 °C 12,2 °C 55 % 1025,8 hPa 0,0 l/m² 2 min 286 W/m² 3,2 km/h (1 Bft) 94,44 %
03.03.2026 16:10 19,6 °C 22,8 °C 12,2 °C 55 % 1025,8 hPa 0,0 l/m² 2 min 280 W/m² 3,2 km/h (1 Bft) 95,65 %
03.03.2026 16:12 19,6 °C 22,2 °C 12,2 °C 56 % 1025,8 hPa 0,0 l/m² 2 min 276 W/m² 3,2 km/h (1 Bft) 96,00 %
03.03.2026 16:14 19,6 °C 21,1 °C 12,2 °C 56 % 1025,8 hPa 0,0 l/m² 2 min 270 W/m² 3,2 km/h (1 Bft) 93,62 %
03.03.2026 16:16 19,6 °C 20,0 °C 12,2 °C 55 % 1025,8 hPa 0,0 l/m² 2 min 264 W/m² 6,4 km/h (2 Bft) 93,62 %
03.03.2026 16:18 19,5 °C 18,9 °C 12,2 °C 55 % 1025,8 hPa 0,0 l/m² 2 min 257 W/m² 3,2 km/h (1 Bft) 93,62 %
03.03.2026 16:20 19,4 °C 18,3 °C 11,7 °C 56 % 1025,8 hPa 0,0 l/m² 2 min 251 W/m² 3,2 km/h (1 Bft) 93,48 %
03.03.2026 16:22 19,3 °C 17,8 °C 11,7 °C 56 % 1025,8 hPa 0,0 l/m² 2 min 244 W/m² 3,2 km/h (1 Bft) 97,87 %
03.03.2026 16:24 19,3 °C 17,8 °C 11,7 °C 56 % 1025,8 hPa 0,0 l/m² 2 min 236 W/m² 3,2 km/h (1 Bft) 93,62 %
03.03.2026 16:26 19,3 °C 17,8 °C 11,7 °C 56 % 1025,8 hPa 0,0 l/m² 2 min 229 W/m² 3,2 km/h (1 Bft) 97,87 %
03.03.2026 16:28 19,3 °C 17,2 °C 11,7 °C 57 % 1025,8 hPa 0,0 l/m² 2 min 223 W/m² 12,9 km/h (3 Bft) 97,87 %
03.03.2026 16:30 19,3 °C 17,2 °C 11,7 °C 56 % 1025,8 hPa 0,0 l/m² 2 min 215 W/m² 12,9 km/h (3 Bft) 97,87 %
03.03.2026 16:32 19,2 °C 17,2 °C 11,7 °C 56 % 1025,8 hPa 0,0 l/m² 2 min 208 W/m² 9,7 km/h (2 Bft) 97,87 %
03.03.2026 16:34 19,1 °C 16,7 °C 11,7 °C 56 % 1025,9 hPa 0,0 l/m² 2 min 203 W/m² 12,9 km/h (3 Bft) 91,30 %
03.03.2026 16:36 18,9 °C 16,7 °C 12,2 °C 56 % 1025,9 hPa 0,0 l/m² 2 min 195 W/m² 6,4 km/h (2 Bft) 97,87 %
03.03.2026 16:38 18,9 °C 16,7 °C 12,2 °C 57 % 1025,9 hPa 0,0 l/m² 2 min 132 W/m² 12,9 km/h (3 Bft) 97,87 %
03.03.2026 16:40 18,8 °C 16,7 °C 11,7 °C 58 % 1025,9 hPa 0,0 l/m² 0 min 85 W/m² 9,7 km/h (2 Bft) 97,87 %
03.03.2026 16:42 18,7 °C 16,7 °C 11,7 °C 58 % 1025,9 hPa 0,0 l/m² 0 min 77 W/m² 9,7 km/h (2 Bft) 97,87 %
03.03.2026 16:44 18,6 °C 16,7 °C 11,7 °C 58 % 1025,9 hPa 0,0 l/m² 0 min 79 W/m² 6,4 km/h (2 Bft) 97,83 %
03.03.2026 16:46 18,4 °C 16,7 °C 11,7 °C 58 % 1025,9 hPa 0,0 l/m² 0 min 73 W/m² 6,4 km/h (2 Bft) 97,87 %
03.03.2026 16:48 18,3 °C 16,7 °C 11,7 °C 59 % 1025,9 hPa 0,0 l/m² 0 min 53 W/m² 9,7 km/h (2 Bft) 95,74 %
03.03.2026 16:50 18,2 °C 16,1 °C 11,7 °C 60 % 1025,9 hPa 0,0 l/m² 0 min 45 W/m² 9,7 km/h (2 Bft) 97,87 %
03.03.2026 16:52 18,1 °C 16,1 °C 11,7 °C 59 % 1026,0 hPa 0,0 l/m² 0 min 41 W/m² 9,7 km/h (2 Bft) 97,87 %
03.03.2026 16:54 18,0 °C 16,1 °C 11,7 °C 59 % 1025,9 hPa 0,0 l/m² 0 min 40 W/m² 6,4 km/h (2 Bft) 97,87 %
03.03.2026 16:56 17,9 °C 16,1 °C 11,7 °C 59 % 1025,9 hPa 0,0 l/m² 0 min 39 W/m² 9,7 km/h (2 Bft) 97,83 %
03.03.2026 16:58 17,9 °C 16,1 °C 11,7 °C 59 % 1025,9 hPa 0,0 l/m² 0 min 39 W/m² 6,4 km/h (2 Bft) 97,87 %
03.03.2026 17:00 17,8 °C 16,1 °C 11,7 °C 59 % 1025,9 hPa 0,0 l/m² 0 min 38 W/m² 6,4 km/h (2 Bft) 97,87 %
03.03.2026 17:02 17,7 °C 16,1 °C 11,7 °C 60 % 1025,8 hPa 0,0 l/m² 0 min 37 W/m² 6,4 km/h (2 Bft) 95,74 %
03.03.2026 17:04 17,6 °C 16,1 °C 11,1 °C 60 % 1025,8 hPa 0,0 l/m² 0 min 35 W/m² 6,4 km/h (2 Bft) 97,92 %
03.03.2026 17:06 17,5 °C 16,1 °C 11,1 °C 60 % 1025,8 hPa 0,0 l/m² 0 min 34 W/m² 6,4 km/h (2 Bft) 100,00 %
03.03.2026 17:08 17,4 °C 16,1 °C 11,1 °C 60 % 1025,8 hPa 0,0 l/m² 0 min 33 W/m² 6,4 km/h (2 Bft) 97,22 %
03.03.2026 17:10 17,4 °C 16,1 °C 11,1 °C 60 % 1025,8 hPa 0,0 l/m² 0 min 33 W/m² 6,4 km/h (2 Bft) 97,87 %
03.03.2026 17:12 17,3 °C 16,1 °C 11,1 °C 60 % 1025,8 hPa 0,0 l/m² 0 min 32 W/m² 3,2 km/h (1 Bft) 97,87 %
03.03.2026 17:14 17,3 °C 16,1 °C 11,1 °C 60 % 1025,8 hPa 0,0 l/m² 0 min 31 W/m² 6,4 km/h (2 Bft) 95,74 %
03.03.2026 17:16 17,3 °C 16,1 °C 11,1 °C 59 % 1025,8 hPa 0,0 l/m² 0 min 30 W/m² 6,4 km/h (2 Bft) 97,83 %
03.03.2026 17:18 17,2 °C 16,1 °C 11,1 °C 59 % 1025,8 hPa 0,0 l/m² 0 min 30 W/m² 6,4 km/h (2 Bft) 97,87 %
03.03.2026 17:20 17,2 °C 15,6 °C 11,1 °C 59 % 1025,8 hPa 0,0 l/m² 0 min 28 W/m² 3,2 km/h (1 Bft) 100,00 %
03.03.2026 17:22 17,2 °C 15,6 °C 10,6 °C 60 % 1025,8 hPa 0,0 l/m² 0 min 28 W/m² 9,7 km/h (2 Bft) 97,87 %
03.03.2026 17:24 17,1 °C 15,6 °C 10,6 °C 60 % 1025,8 hPa 0,0 l/m² 0 min 28 W/m² 9,7 km/h (2 Bft) 97,87 %
03.03.2026 17:26 17,1 °C 15,6 °C 10,6 °C 60 % 1025,8 hPa 0,0 l/m² 0 min 26 W/m² 6,4 km/h (2 Bft) 97,87 %
03.03.2026 17:28 17,1 °C 15,6 °C 10,6 °C 60 % 1025,8 hPa 0,0 l/m² 0 min 26 W/m² 9,7 km/h (2 Bft) 97,83 %
03.03.2026 17:30 17,0 °C 15,6 °C 10,6 °C 60 % 1025,9 hPa 0,0 l/m² 0 min 25 W/m² 6,4 km/h (2 Bft) 100,00 %
03.03.2026 17:32 16,9 °C 15,0 °C 10,6 °C 60 % 1025,9 hPa 0,0 l/m² 0 min 25 W/m² 3,2 km/h (1 Bft) 100,00 %
03.03.2026 17:34 16,9 °C 15,0 °C 10,0 °C 60 % 1025,9 hPa 0,0 l/m² 0 min 24 W/m² 3,2 km/h (1 Bft) 100,00 %
03.03.2026 17:36 16,9 °C 15,0 °C 10,0 °C 61 % 1025,9 hPa 0,0 l/m² 0 min 23 W/m² 3,2 km/h (1 Bft) 100,00 %
03.03.2026 17:38 16,8 °C 15,0 °C 10,0 °C 61 % 1025,9 hPa 0,0 l/m² 0 min 22 W/m² 3,2 km/h (1 Bft) 100,00 %
03.03.2026 17:40 16,8 °C 15,0 °C 10,0 °C 61 % 1025,8 hPa 0,0 l/m² 0 min 21 W/m² 3,2 km/h (1 Bft) 100,00 %
03.03.2026 17:42 16,8 °C 14,4 °C 9,4 °C 62 % 1025,9 hPa 0,0 l/m² 0 min 20 W/m² 3,2 km/h (1 Bft) 100,00 %
03.03.2026 17:44 16,7 °C 14,4 °C 9,4 °C 62 % 1025,9 hPa 0,0 l/m² 0 min 19 W/m² 3,2 km/h (1 Bft) 97,87 %
03.03.2026 17:46 16,7 °C 14,4 °C 9,4 °C 62 % 1025,9 hPa 0,0 l/m² 0 min 18 W/m² 3,2 km/h (1 Bft) 100,00 %
03.03.2026 17:48 16,7 °C 14,4 °C 9,4 °C 63 % 1025,8 hPa 0,0 l/m² 0 min 18 W/m² 3,2 km/h (1 Bft) 100,00 %
03.03.2026 17:50 16,6 °C 14,4 °C 9,4 °C 63 % 1025,8 hPa 0,0 l/m² 0 min 16 W/m² 3,2 km/h (1 Bft) 100,00 %
03.03.2026 17:52 16,6 °C 13,9 °C 9,4 °C 63 % 1025,9 hPa 0,0 l/m² 0 min 16 W/m² 3,2 km/h (1 Bft) 100,00 %
03.03.2026 17:54 16,6 °C 13,9 °C 8,9 °C 63 % 1025,9 hPa 0,0 l/m² 0 min 14 W/m² 3,2 km/h (1 Bft) 100,00 %
03.03.2026 17:56 16,5 °C 13,9 °C 8,9 °C 63 % 1025,9 hPa 0,0 l/m² 0 min 14 W/m² 0,0 km/h (0 Bft) 100,00 %
03.03.2026 17:58 16,4 °C 13,9 °C 8,9 °C 63 % 1025,9 hPa 0,0 l/m² 0 min 12 W/m² 0,0 km/h (0 Bft) 97,87 %
03.03.2026 18:00 16,4 °C 13,9 °C 8,9 °C 63 % 1025,9 hPa 0,0 l/m² 0 min 12 W/m² 0,0 km/h (0 Bft) 97,87 %
03.03.2026 18:02 16,3 °C 13,9 °C 8,3 °C 63 % 1026,0 hPa 0,0 l/m² 0 min 12 W/m² 0,0 km/h (0 Bft) 95,74 %
03.03.2026 18:04 16,3 °C 13,9 °C 8,3 °C 63 % 1025,9 hPa 0,0 l/m² 0 min 11 W/m² 0,0 km/h (0 Bft) 45,95 %
03.03.2026 18:07 16,2 °C 13,3 °C 8,3 °C 64 % 1025,9 hPa 0,0 l/m² 0 min 10 W/m² 0,0 km/h (0 Bft) 98,63 %
03.03.2026 18:08 16,2 °C 13,3 °C 8,3 °C 64 % 1025,9 hPa 0,0 l/m² 0 min 9 W/m² 0,0 km/h (0 Bft) 95,83 %
03.03.2026 18:12 16,1 °C 12,8 °C 7,8 °C 64 % 1026,0 hPa 0,0 l/m² 0 min 7 W/m² 0,0 km/h (0 Bft) 98,18 %
03.03.2026 18:14 16,0 °C 12,8 °C 7,8 °C 64 % 1026,0 hPa 0,0 l/m² 0 min 6 W/m² 3,2 km/h (1 Bft) 96,00 %
03.03.2026 18:16 15,9 °C 12,8 °C 7,8 °C 65 % 1026,0 hPa 0,0 l/m² 0 min 5 W/m² 0,0 km/h (0 Bft) 95,74 %
03.03.2026 18:18 15,8 °C 12,8 °C 7,8 °C 65 % 1026,0 hPa 0,0 l/m² 0 min 5 W/m² 0,0 km/h (0 Bft) 94,44 %
03.03.2026 18:20 15,8 °C 12,8 °C 7,8 °C 65 % 1026,1 hPa 0,0 l/m² 0 min 2 W/m² 0,0 km/h (0 Bft) 94,44 %
03.03.2026 18:22 15,7 °C 12,2 °C 7,8 °C 65 % 1026,1 hPa 0,0 l/m² 0 min 0 W/m² 0,0 km/h (0 Bft) 96,00 %
03.03.2026 18:24 15,7 °C 12,2 °C 7,8 °C 65 % 1026,1 hPa 0,0 l/m² 0 min 0 W/m² 0,0 km/h (0 Bft) 95,83 %
03.03.2026 18:26 15,6 °C 12,2 °C 7,8 °C 65 % 1026,1 hPa 0,0 l/m² 0 min 0 W/m² 0,0 km/h (0 Bft) 91,43 %
03.03.2026 18:28 15,5 °C 12,2 °C 7,8 °C 65 % 1026,1 hPa 0,0 l/m² 0 min 0 W/m² 0,0 km/h (0 Bft) 94,44 %
03.03.2026 18:30 15,4 °C 12,2 °C 7,2 °C 66 % 1026,1 hPa 0,0 l/m² 0 min 0 W/m² 0,0 km/h (0 Bft) 94,00 %
03.03.2026 18:32 15,3 °C 12,2 °C 7,2 °C 66 % 1026,1 hPa 0,0 l/m² 0 min 0 W/m² 0,0 km/h (0 Bft) 95,83 %
03.03.2026 18:34 15,2 °C 12,2 °C 7,2 °C 66 % 1026,1 hPa 0,0 l/m² 0 min 0 W/m² 0,0 km/h (0 Bft) 97,14 %
03.03.2026 18:36 15,2 °C 12,2 °C 7,2 °C 66 % 1026,1 hPa 0,0 l/m² 0 min 0 W/m² 0,0 km/h (0 Bft) 94,55 %
03.03.2026 18:38 15,1 °C 12,2 °C 7,2 °C 66 % 1026,1 hPa 0,0 l/m² 0 min 0 W/m² 0,0 km/h (0 Bft) 95,92 %
03.03.2026 18:40 15,0 °C 12,2 °C 7,2 °C 66 % 1026,1 hPa 0,0 l/m² 0 min 0 W/m² 0,0 km/h (0 Bft) 95,92 %
03.03.2026 18:42 14,9 °C 12,2 °C 7,2 °C 67 % 1026,1 hPa 0,0 l/m² 0 min 0 W/m² 0,0 km/h (0 Bft) 94,29 %
03.03.2026 18:44 14,8 °C 11,7 °C 6,7 °C 67 % 1026,1 hPa 0,0 l/m² 0 min 0 W/m² 0,0 km/h (0 Bft) 96,30 %
03.03.2026 18:46 14,8 °C 11,7 °C 6,7 °C 67 % 1026,1 hPa 0,0 l/m² 0 min 0 W/m² 0,0 km/h (0 Bft) 90,00 %
03.03.2026 18:48 14,7 °C 11,7 °C 6,7 °C 67 % 1026,2 hPa 0,0 l/m² 0 min 0 W/m² 0,0 km/h (0 Bft) 93,75 %
03.03.2026 18:50 14,6 °C 11,7 °C 6,7 °C 67 % 1026,2 hPa 0,0 l/m² 0 min 0 W/m² 0,0 km/h (0 Bft) 94,29 %
03.03.2026 18:52 14,6 °C 11,7 °C 6,7 °C 67 % 1026,2 hPa 0,0 l/m² 0 min 0 W/m² 0,0 km/h (0 Bft) 92,59 %
03.03.2026 18:54 14,4 °C 11,7 °C 6,7 °C 67 % 1026,2 hPa 0,0 l/m² 0 min 0 W/m² 0,0 km/h (0 Bft) 94,00 %
03.03.2026 18:56 14,4 °C 11,7 °C 6,7 °C 68 % 1026,2 hPa 0,0 l/m² 0 min 0 W/m² 0,0 km/h (0 Bft) 95,83 %
03.03.2026 18:58 14,3 °C 11,1 °C 6,7 °C 68 % 1026,2 hPa 0,0 l/m² 0 min 0 W/m² 0,0 km/h (0 Bft) 95,24 %
03.03.2026 19:00 14,3 °C 11,1 °C 6,1 °C 68 % 1026,2 hPa 0,0 l/m² 0 min 0 W/m² 0,0 km/h (0 Bft) 96,00 %
03.03.2026 19:02 14,3 °C 11,1 °C 6,1 °C 68 % 1026,3 hPa 0,0 l/m² 0 min 0 W/m² 0,0 km/h (0 Bft) 91,84 %
03.03.2026 19:04 14,2 °C 11,1 °C 6,1 °C 68 % 1026,2 hPa 0,0 l/m² 0 min 0 W/m² 0,0 km/h (0 Bft) 91,67 %
03.03.2026 19:06 14,1 °C 11,1 °C 6,1 °C 69 % 1026,3 hPa 0,0 l/m² 0 min 0 W/m² 0,0 km/h (0 Bft) 95,31 %
03.03.2026 19:08 14,0 °C 11,1 °C 6,1 °C 69 % 1026,3 hPa 0,0 l/m² 0 min 0 W/m² 0,0 km/h (0 Bft) 96,55 %
03.03.2026 19:10 13,9 °C 10,6 °C 6,1 °C 69 % 1026,2 hPa 0,0 l/m² 0 min 0 W/m² 0,0 km/h (0 Bft) 97,87 %
03.03.2026 19:12 13,8 °C 10,6 °C 6,1 °C 69 % 1026,3 hPa 0,0 l/m² 0 min 0 W/m² 0,0 km/h (0 Bft) 98,21 %
03.03.2026 19:14 13,8 °C 10,6 °C 5,6 °C 69 % 1026,3 hPa 0,0 l/m² 0 min 0 W/m² 0,0 km/h (0 Bft) 95,92 %
03.03.2026 19:16 13,7 °C 10,6 °C 5,6 °C 70 % 1026,2 hPa 0,0 l/m² 0 min 0 W/m² 0,0 km/h (0 Bft) 97,22 %
03.03.2026 19:18 13,6 °C 10,6 °C 5,6 °C 70 % 1026,3 hPa 0,0 l/m² 0 min 0 W/m² 0,0 km/h (0 Bft) 100,00 %
03.03.2026 19:20 13,6 °C 10,6 °C 5,6 °C 70 % 1026,3 hPa 0,0 l/m² 0 min 0 W/m² 0,0 km/h (0 Bft) 98,15 %
03.03.2026 19:22 13,4 °C 10,6 °C 5,6 °C 70 % 1026,3 hPa 0,0 l/m² 0 min 0 W/m² 0,0 km/h (0 Bft) 100,00 %
03.03.2026 19:24 13,4 °C 10,6 °C 5,6 °C 71 % 1026,3 hPa 0,0 l/m² 0 min 0 W/m² 0,0 km/h (0 Bft) 97,96 %
03.03.2026 19:26 13,3 °C 10,6 °C 5,6 °C 71 % 1026,3 hPa 0,0 l/m² 0 min 0 W/m² 0,0 km/h (0 Bft) 97,14 %
03.03.2026 19:28 13,2 °C 10,6 °C 5,6 °C 71 % 1026,3 hPa 0,0 l/m² 0 min 0 W/m² 0,0 km/h (0 Bft) 100,00 %
03.03.2026 19:30 13,2 °C 10,6 °C 5,6 °C 71 % 1026,3 hPa 0,0 l/m² 0 min 0 W/m² 0,0 km/h (0 Bft) 100,00 %
03.03.2026 19:32 13,1 °C 10,6 °C 5,6 °C 71 % 1026,3 hPa 0,0 l/m² 0 min 0 W/m² 0,0 km/h (0 Bft) 100,00 %
03.03.2026 19:34 13,0 °C 10,6 °C 5,6 °C 71 % 1026,3 hPa 0,0 l/m² 0 min 0 W/m² 0,0 km/h (0 Bft) 100,00 %
03.03.2026 19:36 12,9 °C 10,6 °C 5,6 °C 72 % 1026,4 hPa 0,0 l/m² 0 min 0 W/m² 0,0 km/h (0 Bft) 100,00 %
03.03.2026 19:38 12,8 °C 10,6 °C 5,6 °C 72 % 1026,4 hPa 0,0 l/m² 0 min 0 W/m² 0,0 km/h (0 Bft) 100,00 %
03.03.2026 19:40 12,8 °C 10,0 °C 5,6 °C 72 % 1026,4 hPa 0,0 l/m² 0 min 0 W/m² 0,0 km/h (0 Bft) 100,00 %
03.03.2026 19:42 12,7 °C 10,0 °C 5,6 °C 72 % 1026,4 hPa 0,0 l/m² 0 min 0 W/m² 0,0 km/h (0 Bft) 100,00 %
03.03.2026 19:44 12,6 °C 10,0 °C 5,6 °C 72 % 1026,4 hPa 0,0 l/m² 0 min 0 W/m² 0,0 km/h (0 Bft) 97,87 %
03.03.2026 19:46 12,6 °C 10,0 °C 5,6 °C 73 % 1026,4 hPa 0,0 l/m² 0 min 0 W/m² 0,0 km/h (0 Bft) 100,00 %
03.03.2026 19:48 12,5 °C 10,0 °C 5,6 °C 73 % 1026,5 hPa 0,0 l/m² 0 min 0 W/m² 0,0 km/h (0 Bft) 100,00 %
03.03.2026 19:50 12,4 °C 10,0 °C 5,6 °C 73 % 1026,5 hPa 0,0 l/m² 0 min 0 W/m² 0,0 km/h (0 Bft) 100,00 %
03.03.2026 19:52 12,4 °C 10,0 °C 5,6 °C 73 % 1026,4 hPa 0,0 l/m² 0 min 0 W/m² 0,0 km/h (0 Bft) 100,00 %
03.03.2026 19:54 12,3 °C 10,0 °C 5,0 °C 73 % 1026,4 hPa 0,0 l/m² 0 min 0 W/m² 0,0 km/h (0 Bft) 100,00 %
03.03.2026 19:56 12,3 °C 10,0 °C 5,0 °C 74 % 1026,5 hPa 0,0 l/m² 0 min 0 W/m² 0,0 km/h (0 Bft) 100,00 %
03.03.2026 19:58 12,2 °C 10,0 °C 5,0 °C 74 % 1026,5 hPa 0,0 l/m² 0 min 0 W/m² 0,0 km/h (0 Bft) 97,14 %
03.03.2026 20:00 12,1 °C 10,0 °C 5,0 °C 74 % 1026,6 hPa 0,0 l/m² 0 min 0 W/m² 0,0 km/h (0 Bft) 98,18 %
03.03.2026 20:02 12,1 °C 10,0 °C 5,0 °C 74 % 1026,6 hPa 0,0 l/m² 0 min 0 W/m² 0,0 km/h (0 Bft) 98,00 %
03.03.2026 20:04 12,1 °C 9,4 °C 5,0 °C 74 % 1026,6 hPa 0,0 l/m² 0 min 0 W/m² 0,0 km/h (0 Bft) 97,22 %
03.03.2026 20:06 11,9 °C 9,4 °C 5,0 °C 74 % 1026,7 hPa 0,0 l/m² 0 min 0 W/m² 0,0 km/h (0 Bft) 61,82 %
03.03.2026 20:08 11,9 °C 9,4 °C 5,0 °C 75 % 1026,7 hPa 0,0 l/m² 0 min 0 W/m² 0,0 km/h (0 Bft) 93,88 %
03.03.2026 20:10 11,8 °C 9,4 °C 5,0 °C 75 % 1026,7 hPa 0,0 l/m² 0 min 0 W/m² 0,0 km/h (0 Bft) 100,00 %
03.03.2026 20:12 11,8 °C 9,4 °C 5,0 °C 75 % 1026,7 hPa 0,0 l/m² 0 min 0 W/m² 0,0 km/h (0 Bft) 95,74 %
03.03.2026 20:14 11,7 °C 9,4 °C 5,0 °C 75 % 1026,7 hPa 0,0 l/m² 0 min 0 W/m² 0,0 km/h (0 Bft) 96,43 %
03.03.2026 20:16 11,7 °C 9,4 °C 5,0 °C 75 % 1026,7 hPa 0,0 l/m² 0 min 0 W/m² 0,0 km/h (0 Bft) 95,92 %
03.03.2026 20:18 11,6 °C 8,9 °C 5,0 °C 75 % 1026,8 hPa 0,0 l/m² 0 min 0 W/m² 0,0 km/h (0 Bft) 97,14 %
03.03.2026 20:20 11,6 °C 8,9 °C 4,4 °C 75 % 1026,8 hPa 0,0 l/m² 0 min 0 W/m² 0,0 km/h (0 Bft) 96,36 %
03.03.2026 20:22 11,6 °C 8,9 °C 4,4 °C 75 % 1026,7 hPa 0,0 l/m² 0 min 0 W/m² 0,0 km/h (0 Bft) 98,04 %
03.03.2026 20:24 11,4 °C 8,9 °C 4,4 °C 75 % 1026,8 hPa 0,0 l/m² 0 min 0 W/m² 0,0 km/h (0 Bft) 94,29 %
03.03.2026 20:26 11,4 °C 8,9 °C 4,4 °C 75 % 1026,8 hPa 0,0 l/m² 0 min 0 W/m² 0,0 km/h (0 Bft) 96,23 %
03.03.2026 20:28 11,3 °C 8,9 °C 4,4 °C 75 % 1026,8 hPa 0,0 l/m² 0 min 0 W/m² 0,0 km/h (0 Bft) 96,08 %
03.03.2026 20:30 11,3 °C 8,9 °C 4,4 °C 75 % 1026,8 hPa 0,0 l/m² 0 min 0 W/m² 3,2 km/h (1 Bft) 97,22 %
03.03.2026 20:32 11,3 °C 8,9 °C 4,4 °C 76 % 1026,8 hPa 0,0 l/m² 0 min 0 W/m² 0,0 km/h (0 Bft) 97,87 %
03.03.2026 20:34 11,2 °C 8,9 °C 4,4 °C 76 % 1026,9 hPa 0,0 l/m² 0 min 0 W/m² 0,0 km/h (0 Bft) 98,18 %
03.03.2026 20:36 11,2 °C 8,9 °C 4,4 °C 76 % 1026,8 hPa 0,0 l/m² 0 min 0 W/m² 0,0 km/h (0 Bft) 98,00 %
03.03.2026 20:38 11,1 °C 8,9 °C 4,4 °C 76 % 1026,9 hPa 0,0 l/m² 0 min 0 W/m² 0,0 km/h (0 Bft) 94,74 %
03.03.2026 20:40 11,1 °C 8,9 °C 4,4 °C 77 % 1026,9 hPa 0,0 l/m² 0 min 0 W/m² 0,0 km/h (0 Bft) 97,87 %
03.03.2026 20:42 11,0 °C 8,9 °C 4,4 °C 77 % 1026,9 hPa 0,0 l/m² 0 min 0 W/m² 0,0 km/h (0 Bft) 97,87 %
03.03.2026 20:44 10,9 °C 8,9 °C 4,4 °C 77 % 1026,9 hPa 0,0 l/m² 0 min 0 W/m² 0,0 km/h (0 Bft) 96,49 %
03.03.2026 20:46 10,9 °C 8,9 °C 4,4 °C 77 % 1026,9 hPa 0,0 l/m² 0 min 0 W/m² 0,0 km/h (0 Bft) 94,59 %
03.03.2026 20:48 10,9 °C 8,9 °C 4,4 °C 77 % 1026,9 hPa 0,0 l/m² 0 min 0 W/m² 0,0 km/h (0 Bft) 93,62 %
03.03.2026 20:50 10,8 °C 8,9 °C 4,4 °C 77 % 1026,9 hPa 0,0 l/m² 0 min 0 W/m² 0,0 km/h (0 Bft) 98,18 %
03.03.2026 20:52 10,8 °C 8,3 °C 4,4 °C 78 % 1026,9 hPa 0,0 l/m² 0 min 0 W/m² 0,0 km/h (0 Bft) 94,74 %
03.03.2026 20:54 10,7 °C 8,3 °C 4,4 °C 78 % 1026,9 hPa 0,0 l/m² 0 min 0 W/m² 0,0 km/h (0 Bft) 100,00 %
03.03.2026 20:56 10,7 °C 8,3 °C 4,4 °C 78 % 1026,9 hPa 0,0 l/m² 0 min 0 W/m² 0,0 km/h (0 Bft) 100,00 %
03.03.2026 20:58 10,7 °C 8,3 °C 3,9 °C 78 % 1027,0 hPa 0,0 l/m² 0 min 0 W/m² 0,0 km/h (0 Bft) 100,00 %
03.03.2026 21:00 10,6 °C 8,3 °C 3,9 °C 78 % 1027,0 hPa 0,0 l/m² 0 min 0 W/m² 0,0 km/h (0 Bft) 100,00 %
03.03.2026 21:02 10,6 °C 8,3 °C 3,9 °C 78 % 1027,0 hPa 0,0 l/m² 0 min 0 W/m² 0,0 km/h (0 Bft) 100,00 %
03.03.2026 21:04 10,5 °C 8,3 °C 3,9 °C 78 % 1027,0 hPa 0,0 l/m² 0 min 0 W/m² 0,0 km/h (0 Bft) 100,00 %
03.03.2026 21:06 10,4 °C 8,3 °C 3,9 °C 78 % 1027,0 hPa 0,0 l/m² 0 min 0 W/m² 0,0 km/h (0 Bft) 100,00 %
03.03.2026 21:08 10,4 °C 8,3 °C 3,9 °C 78 % 1027,1 hPa 0,0 l/m² 0 min 0 W/m² 0,0 km/h (0 Bft) 100,00 %
03.03.2026 21:10 10,4 °C 8,3 °C 3,9 °C 78 % 1027,0 hPa 0,0 l/m² 0 min 0 W/m² 0,0 km/h (0 Bft) 100,00 %
03.03.2026 21:12 10,3 °C 8,3 °C 3,9 °C 78 % 1027,0 hPa 0,0 l/m² 0 min 0 W/m² 0,0 km/h (0 Bft) 95,00 %
03.03.2026 21:14 10,3 °C 8,3 °C 3,9 °C 78 % 1027,0 hPa 0,0 l/m² 0 min 0 W/m² 0,0 km/h (0 Bft) 100,00 %
03.03.2026 21:16 10,3 °C 8,3 °C 3,9 °C 78 % 1027,1 hPa 0,0 l/m² 0 min 0 W/m² 0,0 km/h (0 Bft) 100,00 %
03.03.2026 21:18 10,2 °C 7,8 °C 3,9 °C 78 % 1027,0 hPa 0,0 l/m² 0 min 0 W/m² 0,0 km/h (0 Bft) 100,00 %
03.03.2026 21:20 10,2 °C 7,8 °C 3,9 °C 78 % 1027,0 hPa 0,0 l/m² 0 min 0 W/m² 0,0 km/h (0 Bft) 100,00 %
03.03.2026 21:22 10,1 °C 7,8 °C 3,9 °C 78 % 1027,0 hPa 0,0 l/m² 0 min 0 W/m² 0,0 km/h (0 Bft) 100,00 %
03.03.2026 21:24 10,1 °C 7,8 °C 3,9 °C 79 % 1027,1 hPa 0,0 l/m² 0 min 0 W/m² 0,0 km/h (0 Bft) 100,00 %
03.03.2026 21:26 10,1 °C 7,8 °C 3,3 °C 79 % 1027,1 hPa 0,0 l/m² 0 min 0 W/m² 0,0 km/h (0 Bft) 97,87 %
03.03.2026 21:28 10,0 °C 7,8 °C 3,3 °C 79 % 1027,1 hPa 0,0 l/m² 0 min 0 W/m² 0,0 km/h (0 Bft) 98,21 %
03.03.2026 21:30 9,9 °C 7,8 °C 3,3 °C 79 % 1027,1 hPa 0,0 l/m² 0 min 0 W/m² 0,0 km/h (0 Bft) 97,37 %
03.03.2026 21:32 9,9 °C 7,8 °C 3,3 °C 79 % 1027,1 hPa 0,0 l/m² 0 min 0 W/m² 0,0 km/h (0 Bft) 95,74 %
03.03.2026 21:34 9,9 °C 7,8 °C 3,3 °C 79 % 1027,1 hPa 0,0 l/m² 0 min 0 W/m² 0,0 km/h (0 Bft) 100,00 %
03.03.2026 21:36 9,8 °C 7,8 °C 3,3 °C 79 % 1027,2 hPa 0,0 l/m² 0 min 0 W/m² 0,0 km/h (0 Bft) 94,87 %
03.03.2026 21:38 9,8 °C 7,8 °C 3,3 °C 79 % 1027,2 hPa 0,0 l/m² 0 min 0 W/m² 0,0 km/h (0 Bft) 98,00 %
03.03.2026 21:40 9,7 °C 7,8 °C 3,3 °C 79 % 1027,1 hPa 0,0 l/m² 0 min 0 W/m² 0,0 km/h (0 Bft) 98,00 %
03.03.2026 21:42 9,7 °C 7,8 °C 3,3 °C 79 % 1027,2 hPa 0,0 l/m² 0 min 0 W/m² 0,0 km/h (0 Bft) 94,29 %
03.03.2026 21:44 9,6 °C 7,8 °C 3,3 °C 79 % 1027,2 hPa 0,0 l/m² 0 min 0 W/m² 0,0 km/h (0 Bft) 98,21 %
03.03.2026 21:46 9,6 °C 7,8 °C 3,3 °C 80 % 1027,2 hPa 0,0 l/m² 0 min 0 W/m² 0,0 km/h (0 Bft) 93,88 %
03.03.2026 21:48 9,6 °C 7,8 °C 3,3 °C 80 % 1027,2 hPa 0,0 l/m² 0 min 0 W/m² 0,0 km/h (0 Bft) 97,44 %
03.03.2026 21:50 9,5 °C 7,2 °C 3,3 °C 80 % 1027,2 hPa 0,0 l/m² 0 min 0 W/m² 0,0 km/h (0 Bft) 93,48 %
03.03.2026 21:52 9,4 °C 7,2 °C 3,3 °C 80 % 1027,2 hPa 0,0 l/m² 0 min 0 W/m² 0,0 km/h (0 Bft) 94,64 %
03.03.2026 21:54 9,4 °C 7,2 °C 3,3 °C 80 % 1027,2 hPa 0,0 l/m² 0 min 0 W/m² 0,0 km/h (0 Bft) 94,74 %
03.03.2026 21:56 9,4 °C 7,2 °C 3,3 °C 80 % 1027,3 hPa 0,0 l/m² 0 min 0 W/m² 0,0 km/h (0 Bft) 95,74 %
03.03.2026 21:58 9,3 °C 7,2 °C 3,3 °C 80 % 1027,3 hPa 0,0 l/m² 0 min 0 W/m² 0,0 km/h (0 Bft) 92,59 %
03.03.2026 22:00 9,3 °C 7,2 °C 3,3 °C 80 % 1027,3 hPa 0,0 l/m² 0 min 0 W/m² 0,0 km/h (0 Bft) 96,08 %
03.03.2026 22:02 9,3 °C 7,2 °C 3,3 °C 80 % 1027,3 hPa 0,0 l/m² 0 min 0 W/m² 0,0 km/h (0 Bft) 88,57 %
03.03.2026 22:04 9,2 °C 7,2 °C 2,8 °C 80 % 1027,3 hPa 0,0 l/m² 0 min 0 W/m² 0,0 km/h (0 Bft) 91,84 %
03.03.2026 22:06 9,2 °C 7,2 °C 2,8 °C 80 % 1027,4 hPa 0,0 l/m² 0 min 0 W/m² 0,0 km/h (0 Bft) 89,36 %
03.03.2026 22:08 9,1 °C 6,7 °C 2,8 °C 80 % 1027,4 hPa 0,0 l/m² 0 min 0 W/m² 0,0 km/h (0 Bft) 96,30 %
03.03.2026 22:10 9,1 °C 6,7 °C 2,8 °C 81 % 1027,3 hPa 0,0 l/m² 0 min 0 W/m² 0,0 km/h (0 Bft) 95,83 %
03.03.2026 22:12 9,1 °C 6,7 °C 2,8 °C 81 % 1027,4 hPa 0,0 l/m² 0 min 0 W/m² 0,0 km/h (0 Bft) 95,83 %
03.03.2026 22:14 9,0 °C 6,7 °C 2,8 °C 81 % 1027,4 hPa 0,0 l/m² 0 min 0 W/m² 0,0 km/h (0 Bft) 94,59 %
03.03.2026 22:16 8,9 °C 6,7 °C 2,8 °C 81 % 1027,4 hPa 0,0 l/m² 0 min 0 W/m² 0,0 km/h (0 Bft) 97,87 %
03.03.2026 22:18 8,9 °C 6,7 °C 2,8 °C 81 % 1027,4 hPa 0,0 l/m² 0 min 0 W/m² 0,0 km/h (0 Bft) 95,92 %
03.03.2026 22:20 8,8 °C 6,7 °C 2,8 °C 81 % 1027,4 hPa 0,0 l/m² 0 min 0 W/m² 0,0 km/h (0 Bft) 95,83 %
03.03.2026 22:22 8,8 °C 6,7 °C 2,8 °C 81 % 1027,4 hPa 0,0 l/m² 0 min 0 W/m² 0,0 km/h (0 Bft) 93,48 %
03.03.2026 22:24 8,8 °C 6,7 °C 2,8 °C 81 % 1027,3 hPa 0,0 l/m² 0 min 0 W/m² 0,0 km/h (0 Bft) 97,96 %
03.03.2026 22:26 8,7 °C 6,7 °C 2,8 °C 81 % 1027,4 hPa 0,0 l/m² 0 min 0 W/m² 0,0 km/h (0 Bft) 93,75 %
03.03.2026 22:28 8,7 °C 6,7 °C 2,8 °C 81 % 1027,5 hPa 0,0 l/m² 0 min 0 W/m² 0,0 km/h (0 Bft) 97,87 %
03.03.2026 22:30 8,6 °C 6,7 °C 2,8 °C 81 % 1027,4 hPa 0,0 l/m² 0 min 0 W/m² 0,0 km/h (0 Bft) 97,92 %
03.03.2026 22:32 8,6 °C 6,7 °C 2,8 °C 81 % 1027,5 hPa 0,0 l/m² 0 min 0 W/m² 0,0 km/h (0 Bft) 95,65 %
03.03.2026 22:34 8,6 °C 6,7 °C 2,8 °C 82 % 1027,5 hPa 0,0 l/m² 0 min 0 W/m² 0,0 km/h (0 Bft) 97,87 %
03.03.2026 22:36 8,5 °C 6,7 °C 2,8 °C 82 % 1027,5 hPa 0,0 l/m² 0 min 0 W/m² 0,0 km/h (0 Bft) 97,96 %
03.03.2026 22:38 8,4 °C 6,7 °C 2,8 °C 82 % 1027,5 hPa 0,0 l/m² 0 min 0 W/m² 0,0 km/h (0 Bft) 95,74 %
03.03.2026 22:40 8,4 °C 6,7 °C 2,8 °C 82 % 1027,5 hPa 0,0 l/m² 0 min 0 W/m² 0,0 km/h (0 Bft) 100,00 %
03.03.2026 22:42 8,4 °C 6,7 °C 2,8 °C 82 % 1027,5 hPa 0,0 l/m² 0 min 0 W/m² 0,0 km/h (0 Bft) 95,74 %
03.03.2026 22:44 8,3 °C 6,7 °C 2,8 °C 82 % 1027,5 hPa 0,0 l/m² 0 min 0 W/m² 0,0 km/h (0 Bft) 97,87 %
03.03.2026 22:46 8,3 °C 6,1 °C 2,2 °C 82 % 1027,5 hPa 0,0 l/m² 0 min 0 W/m² 0,0 km/h (0 Bft) 97,87 %
03.03.2026 22:48 8,3 °C 6,1 °C 2,2 °C 82 % 1027,5 hPa 0,0 l/m² 0 min 0 W/m² 0,0 km/h (0 Bft) 61,11 %
03.03.2026 22:50 8,2 °C 6,1 °C 2,2 °C 82 % 1027,5 hPa 0,0 l/m² 0 min 0 W/m² 0,0 km/h (0 Bft) 95,83 %
03.03.2026 22:52 8,2 °C 6,1 °C 2,2 °C 82 % 1027,5 hPa 0,0 l/m² 0 min 0 W/m² 0,0 km/h (0 Bft) 97,92 %
03.03.2026 22:54 8,1 °C 6,1 °C 2,8 °C 82 % 1027,5 hPa 0,0 l/m² 0 min 0 W/m² 0,0 km/h (0 Bft) 100,00 %
03.03.2026 22:56 8,1 °C 6,7 °C 2,8 °C 82 % 1027,5 hPa 0,0 l/m² 0 min 0 W/m² 0,0 km/h (0 Bft) 100,00 %
03.03.2026 22:58 8,1 °C 6,7 °C 2,8 °C 83 % 1027,5 hPa 0,0 l/m² 0 min 0 W/m² 0,0 km/h (0 Bft) 100,00 %
03.03.2026 23:00 8,1 °C 6,7 °C 2,2 °C 83 % 1027,6 hPa 0,0 l/m² 0 min 0 W/m² 0,0 km/h (0 Bft) 100,00 %
03.03.2026 23:02 8,0 °C 6,1 °C 2,2 °C 83 % 1027,6 hPa 0,0 l/m² 0 min 0 W/m² 0,0 km/h (0 Bft) 100,00 %
03.03.2026 23:04 8,0 °C 6,1 °C 2,8 °C 83 % 1027,5 hPa 0,0 l/m² 0 min 0 W/m² 0,0 km/h (0 Bft) 100,00 %
03.03.2026 23:06 8,0 °C 6,1 °C 2,8 °C 84 % 1027,5 hPa 0,0 l/m² 0 min 0 W/m² 3,2 km/h (1 Bft) 98,31 %
03.03.2026 23:08 7,9 °C 6,1 °C 2,8 °C 84 % 1027,6 hPa 0,0 l/m² 0 min 0 W/m² 0,0 km/h (0 Bft) 97,14 %
03.03.2026 23:10 7,9 °C 6,1 °C 2,2 °C 84 % 1027,6 hPa 0,0 l/m² 0 min 0 W/m² 0,0 km/h (0 Bft) 93,62 %
03.03.2026 23:12 7,9 °C 6,1 °C 2,2 °C 84 % 1027,6 hPa 0,0 l/m² 0 min 0 W/m² 0,0 km/h (0 Bft) 97,83 %
03.03.2026 23:14 7,8 °C 6,1 °C 2,2 °C 84 % 1027,5 hPa 0,0 l/m² 0 min 0 W/m² 0,0 km/h (0 Bft) 97,87 %
03.03.2026 23:16 7,8 °C 6,1 °C 2,2 °C 84 % 1027,6 hPa 0,0 l/m² 0 min 0 W/m² 0,0 km/h (0 Bft) 96,36 %
03.03.2026 23:18 7,8 °C 6,1 °C 2,2 °C 84 % 1027,5 hPa 0,0 l/m² 0 min 0 W/m² 0,0 km/h (0 Bft) 95,83 %
03.03.2026 23:20 7,8 °C 6,1 °C 2,2 °C 84 % 1027,5 hPa 0,0 l/m² 0 min 0 W/m² 0,0 km/h (0 Bft) 97,92 %
03.03.2026 23:22 7,7 °C 5,6 °C 2,2 °C 84 % 1027,6 hPa 0,0 l/m² 0 min 0 W/m² 0,0 km/h (0 Bft) 97,22 %
03.03.2026 23:24 7,7 °C 5,6 °C 2,2 °C 84 % 1027,6 hPa 0,0 l/m² 0 min 0 W/m² 0,0 km/h (0 Bft) 97,96 %
03.03.2026 23:26 7,7 °C 5,6 °C 2,2 °C 84 % 1027,5 hPa 0,0 l/m² 0 min 0 W/m² 0,0 km/h (0 Bft) 97,92 %
03.03.2026 23:28 7,7 °C 6,1 °C 2,2 °C 85 % 1027,5 hPa 0,0 l/m² 0 min 0 W/m² 3,2 km/h (1 Bft) 97,87 %
03.03.2026 23:30 7,6 °C 6,1 °C 2,2 °C 85 % 1027,5 hPa 0,0 l/m² 0 min 0 W/m² 0,0 km/h (0 Bft) 97,96 %
03.03.2026 23:32 7,6 °C 6,1 °C 2,2 °C 85 % 1027,5 hPa 0,0 l/m² 0 min 0 W/m² 0,0 km/h (0 Bft) 97,83 %
03.03.2026 23:34 7,6 °C 6,1 °C 2,2 °C 85 % 1027,5 hPa 0,0 l/m² 0 min 0 W/m² 0,0 km/h (0 Bft) 97,92 %
03.03.2026 23:36 7,6 °C 6,1 °C 2,2 °C 85 % 1027,5 hPa 0,0 l/m² 0 min 0 W/m² 0,0 km/h (0 Bft) 93,62 %
03.03.2026 23:38 7,6 °C 6,1 °C 2,2 °C 85 % 1027,5 hPa 0,0 l/m² 0 min 0 W/m² 0,0 km/h (0 Bft) 95,74 %
03.03.2026 23:40 7,5 °C 6,1 °C 2,2 °C 85 % 1027,6 hPa 0,0 l/m² 0 min 0 W/m² 0,0 km/h (0 Bft) 97,87 %
03.03.2026 23:42 7,4 °C 5,6 °C 2,2 °C 86 % 1027,6 hPa 0,0 l/m² 0 min 0 W/m² 0,0 km/h (0 Bft) 95,74 %
03.03.2026 23:44 7,4 °C 5,6 °C 2,2 °C 86 % 1027,6 hPa 0,0 l/m² 0 min 0 W/m² 0,0 km/h (0 Bft) 97,83 %
03.03.2026 23:46 7,4 °C 5,6 °C 2,2 °C 86 % 1027,6 hPa 0,0 l/m² 0 min 0 W/m² 0,0 km/h (0 Bft) 95,35 %
03.03.2026 23:48 7,4 °C 5,6 °C 2,2 °C 86 % 1027,6 hPa 0,0 l/m² 0 min 0 W/m² 0,0 km/h (0 Bft) 98,00 %
03.03.2026 23:50 7,3 °C 5,6 °C 2,2 °C 86 % 1027,5 hPa 0,0 l/m² 0 min 0 W/m² 0,0 km/h (0 Bft) 97,92 %
03.03.2026 23:52 7,3 °C 5,6 °C 2,2 °C 86 % 1027,5 hPa 0,0 l/m² 0 min 0 W/m² 0,0 km/h (0 Bft) 97,87 %
03.03.2026 23:54 7,3 °C 5,6 °C 2,2 °C 86 % 1027,6 hPa 0,0 l/m² 0 min 0 W/m² 0,0 km/h (0 Bft) 53,19 %
03.03.2026 23:56 7,2 °C 5,6 °C 1,7 °C 86 % 1027,5 hPa 0,0 l/m² 0 min 0 W/m² 0,0 km/h (0 Bft) 97,83 %
03.03.2026 23:58 7,2 °C 5,6 °C 1,7 °C 86 % 1027,6 hPa 0,0 l/m² 0 min 0 W/m² 0,0 km/h (0 Bft) 97,87 %
_ Min-Zeit 06:54 07:32 06:40 15:14 00:00 - - - 03:46 18:04
Minimum _ 6,1 °C 5,0 °C 1,7 °C 55 % 1023,1 hPa - - - 0,0 km/h (0 Bft) 45,95 %
_ Max-Zeit 15:44 13:26 11:46 07:44 23:00 00:00 12:08 11:58 00:04 00:08
Maximum _ 19,9 °C 29,4 °C 20,0 °C 87 % 1027,6 hPa 0,0 l/m² 4 min 571 W/m² 25,7 km/h
S (4 Bft)
100,00 %
Durchschnitt _ 11,6 °C 12,6 °C 6,6 °C 75 % 1025,8 hPa #0,0 l/m² #7:30 h 292 W/m² 6,6 km/h (2 Bft) 96,75 %
© 2026 W. Hausmann